GEFSSGP_con_cape1000_006.txt.gz
Probability
100 100 100 87 0 0 0 0 0 0 0 0 0 0 0 0 0 0 0 0 0 16 100 100 100 100 100 100 100 100 100 100 100 100 100 100 100 100 90 90 100 100 100 100 100 100 100 100 100
100 100 90 0 0 0 0 0 0 0 0 0 0 0 0 0 0 0 0 23 6 29 100 100 100 100 100 100 100 100 100 100 100 100 100 100 100 100 100 100 100 100 100 100 100 100 100 100 100
100 90 0 0 0 0 0 0 0 0 0 0 0 0 0 0 0 0 0 29 29 61 100 100 100 100 100 100 100 100 100 100 100 100 100 100 100 100 100 100 100 100 100 100 100 100 100 100 100
100 0 0 0 0 0 0 0 0 0 0 0 0 0 0 0 0 0 13 35 74 77 100 100 100 100 100 100 100 100 100 100 100 100 100 100 100 100 100 94 97 100 100 100 100 100 100 94 90
10 0 0 0 0 0 0 0 0 0 0 0 0 0 0 0 0 0 29 52 77 97 100 100 100 100 100 100 100 100 100 100 100 100 100 100 100 100 100 90 97 100 100 100 100 100 45 6 45
0 0 0 0 0 0 0 0 0 0 0 0 0 0 0 0 0 0 19 52 97 97 100 100 100 100 100 100 100 100 100 100 100 100 100 100 100 100 100 81 68 94 100 97 100 90 13 3 10
0 0 0 0 0 0 0 0 0 0 0 0 0 0 0 0 0 0 35 90 97 94 100 100 100 100 100 100 100 100 100 100 100 100 100 100 100 100 100 45 48 87 100 97 77 32 0 6 0
0 0 0 0 0 0 0 0 0 0 0 0 0 0 0 0 0 0 81 84 74 58 97 100 100 100 100 100 100 100 100 100 100 100 100 100 100 100 94 3 42 90 100 97 84 48 29 3 0
0 0 0 0 0 0 0 0 0 0 0 0 0 0 0 0 0 6 55 48 74 90 87 87 84 87 94 97 100 100 100 100 100 100 100 100 84 81 26 0 32 94 94 84 52 23 0 0 0
0 0 0 0 0 0 0 0 0 0 0 0 0 0 0 0 0 3 10 19 58 81 74 68 68 65 48 77 94 97 100 100 100 100 100 39 6 0 0 0 45 90 90 58 19 6 0 0 0
0 0 0 0 0 0 0 0 0 0 0 0 0 0 0 0 0 0 6 10 42 68 77 55 39 45 26 23 55 58 84 74 52 55 39 3 0 0 0 0 32 16 61 16 16 3 0 0 0
0 0 0 0 0 0 0 0 0 0 0 0 0 0 0 0 0 0 0 0 6 48 65 55 32 35 10 13 29 42 42 16 3 6 3 0 0 0 0 0 0 3 6 0 0 0 0 0 0
0 0 0 0 3 0 0 0 0 0 0 0 0 0 0 0 0 0 0 0 0 35 48 39 32 19 16 10 10 16 0 0 0 0 0 0 0 0 0 0 0 0 0 0 0 0 0 0 0
0 0 0 0 0 0 0 0 0 0 0 0 0 0 0 0 0 0 0 0 0 10 39 32 48 23 19 6 6 3 0 0 0 0 0 0 0 0 0 0 0 0 0 0 0 0 0 0 0
0 0 0 0 0 0 0 0 0 0 0 0 0 0 0 0 0 0 0 0 0 3 19 26 42 35 19 6 6 3 0 0 0 0 0 0 0 0 0 0 0 0 0 0 0 0 0 0 0
0 0 0 0 0 0 0 0 0 0 0 0 0 0 0 0 0 0 0 0 3 13 19 19 42 26 26 16 10 6 0 0 0 0 0 0 0 0 0 0 0 0 0 0 0 0 0 0 0
0 0 0 0 0 0 0 0 0 0 0 0 0 0 0 0 0 0 0 0 16 42 32 13 6 13 19 13 10 0 0 0 0 0 0 0 3 0 0 0 0 0 0 0 0 0 0 0 0
0 0 0 0 0 0 0 0 0 0 0 0 0 0 0 0 0 0 0 0 68 71 68 45 23 10 10 3 0 0 0 0 0 0 0 0 0 0 0 0 0 0 0 0 0 0 0 0 0
0 0 0 0 0 0 0 0 0 0 0 0 0 0 0 0 0 0 0 10 61 84 84 81 71 26 6 0 0 0 0 0 0 0 0 0 0 0 0 0 0 0 0 0 0 0 0 0 0
0 0 0 0 0 0 0 0 0 0 0 0 0 0 0 0 0 0 0 19 52 84 84 81 90 48 23 13 3 0 0 0 0 0 0 0 0 0 0 0 0 0 0 0 0 0 0 0 0
0 0 0 0 0 0 0 0 0 0 0 0 0 0 0 0 0 10 10 26 52 84 81 90 77 48 23 6 0 0 0 0 0 0 0 0 0 0 0 0 0 0 0 0 0 0 0 0 0
0 0 0 0 0 0 0 0 0 0 0 0 0 0 0 0 13 35 26 39 61 90 84 74 55 39 48 35 10 0 0 0 0 0 0 0 0 0 0 0 0 0 0 0 0 0 0 0 0
0 0 0 0 0 0 0 0 0 0 0 0 0 0 0 6 23 45 48 61 77 74 61 39 23 32 65 71 45 6 0 0 0 0 0 0 0 0 0 0 0 0 0 0 0 0 0 0 0
0 0 0 0 0 0 0 0 0 0 0 0 0 0 0 3 13 35 39 52 61 45 42 26 23 48 74 68 42 10 0 0 0 0 0 0 0 0 0 0 0 0 0 0 0 0 0 0 0
0 0 0 0 0 0 0 0 0 0 0 0 0 0 0 3 13 29 39 35 26 35 52 55 65 77 81 84 39 16 3 0 0 0 0 0 0 0 0 0 0 0 0 0 0 0 0 0 0
0 0 0 0 0 0 0 0 0 0 0 0 0 0 3 0 3 13 29 39 29 48 58 74 87 84 74 68 48 3 0 0 0 0 0 0 0 0 0 0 0 0 0 0 0 0 0 0 0
0 0 0 0 0 0 0 0 0 0 0 0 0 0 0 0 0 3 16 16 26 39 45 68 87 84 52 29 16 0 0 0 0 0 0 0 0 0 0 0 0 0 0 0 0 0 0 0 0
0 0 0 0 0 0 0 0 0 0 0 0 0 0 0 0 0 0 0 13 23 35 58 74 90 87 74 35 6 0 0 0 0 0 0 0 0 0 0 0 0 0 0 0 0 0 0 0 0
0 0 0 0 0 0 0 0 0 0 0 0 0 0 0 0 0 0 0 3 19 35 61 77 90 84 42 29 3 0 0 0 0 0 0 0 0 0 0 0 0 0 0 0 0 0 0 0 0
0 0 0 0 0 0 0 0 0 0 0 0 0 0 0 0 0 0 0 0 6 29 48 81 81 61 58 45 29 6 0 0 0 0 0 0 0 0 0 0 0 0 0 0 0 0 0 0 0

GEFSSGP_con_cape1000_012.txt.gz
Probability
100 100 74 0 0 0 0 0 0 0 0 0 0 0 0 0 0 0 0 0 0 0 100 100 100 100 100 100 100 100 100 100 100 100 100 100 94 87 97 100 100 100 100 100 100 100 100 100 100
100 97 6 0 0 0 0 0 0 0 0 0 0 0 0 0 0 0 0 0 0 26 100 100 100 100 100 100 100 100 100 100 100 100 100 100 94 97 97 100 100 100 100 100 100 100 100 100 100
94 19 0 0 0 0 0 0 0 0 0 0 0 0 0 0 0 0 0 0 0 55 100 100 100 100 100 100 100 100 100 100 100 100 100 100 100 100 90 100 100 100 97 94 100 100 97 100 100
3 0 0 0 0 0 0 0 0 0 0 0 0 0 0 0 0 0 0 0 0 58 100 100 100 100 100 100 100 100 100 100 100 100 100 100 100 97 87 100 100 97 84 68 81 77 90 94 100
0 0 0 0 0 0 0 0 0 0 0 0 0 0 0 0 0 0 0 0 0 45 100 100 100 100 100 100 100 100 100 100 100 100 100 100 100 94 74 97 100 100 77 42 39 23 42 81 97
0 0 0 0 0 0 0 0 0 0 0 0 0 0 0 0 3 6 3 0 0 32 94 100 100 100 100 100 100 100 100 100 100 100 100 100 100 97 71 77 87 87 71 45 16 0 3 26 77
0 0 0 0 0 0 0 0 0 0 0 0 0 0 0 0 0 0 6 10 3 29 81 94 100 100 100 100 100 100 100 100 100 100 100 100 100 100 74 48 65 52 45 19 3 0 0 6 55
0 0 0 0 0 0 0 0 0 0 0 0 0 0 0 0 0 0 6 3 10 19 90 97 100 100 100 100 100 100 100 100 100 100 100 100 100 100 58 32 35 19 16 3 0 0 0 10 71
0 0 0 0 0 0 0 0 0 0 0 0 0 0 0 0 0 0 6 3 16 45 74 74 74 87 81 84 100 100 100 100 100 100 100 100 94 68 35 3 61 39 19 3 0 0 0 0 55
0 0 0 0 0 0 0 0 0 0 0 0 0 0 0 0 0 0 3 3 10 32 61 45 29 42 52 84 97 90 97 100 90 81 81 10 0 0 3 0 55 58 23 3 3 3 0 0 0
0 0 0 0 0 0 0 0 0 0 0 0 0 0 0 0 0 0 0 0 3 16 55 52 16 23 26 29 23 32 77 58 35 19 10 3 0 0 0 0 3 10 13 0 0 0 0 0 0
0 0 0 0 0 0 0 0 0 0 0 0 0 0 0 0 0 0 0 0 0 0 45 58 29 16 13 13 16 23 48 39 19 10 3 0 0 0 0 0 0 0 0 0 0 0 0 0 0
0 0 0 0 0 0 0 0 0 0 0 0 0 0 0 0 0 0 0 0 0 6 39 52 29 13 3 0 10 19 16 16 10 6 0 0 0 0 0 0 0 0 0 0 0 0 0 0 0
0 0 0 0 0 0 0 0 0 0 0 0 0 0 0 0 0 0 3 0 0 3 13 42 29 6 0 0 10 6 3 3 3 3 3 0 0 0 0 0 0 0 0 0 0 0 0 0 0
0 0 0 0 0 0 0 0 0 0 0 0 0 0 0 0 0 0 3 3 3 3 16 32 35 16 0 0 6 6 3 0 3 3 3 0 0 0 0 0 0 0 0 0 0 0 0 0 0
0 0 0 0 0 0 0 0 0 0 0 0 0 0 0 0 0 0 0 3 3 3 13 29 68 29 6 3 0 6 6 0 0 0 0 0 0 0 0 0 0 0 0 0 0 0 0 0 0
0 0 0 0 0 0 0 0 0 0 0 0 0 0 0 0 0 0 0 0 6 3 13 29 52 29 26 10 0 0 0 0 0 0 0 0 0 0 0 0 0 0 0 0 0 0 0 0 0
0 0 0 0 0 0 0 0 0 0 0 0 0 0 0 0 0 0 0 0 0 0 3 26 42 29 29 3 0 0 0 0 0 0 0 0 0 0 0 0 0 0 0 0 0 0 0 0 0
0 0 0 0 0 0 0 0 0 0 0 0 0 0 0 0 0 0 0 0 0 0 0 23 35 26 29 13 0 0 0 0 0 0 0 0 0 0 0 0 0 0 0 0 0 0 0 0 0
0 0 0 0 0 0 0 0 0 0 0 0 0 0 0 0 0 0 0 0 0 0 0 19 35 29 29 29 3 0 0 0 0 0 0 0 0 0 0 0 0 0 0 0 0 0 0 0 0
0 0 0 0 0 0 0 0 0 0 0 0 0 0 0 0 0 0 0 0 0 3 0 10 19 13 16 6 0 0 0 0 0 0 0 0 0 0 0 0 0 0 0 0 0 0 0 0 0
0 0 0 0 0 0 0 0 0 0 0 0 0 0 0 0 0 0 3 3 0 0 10 23 6 3 0 0 0 0 0 0 0 0 0 0 0 0 0 0 0 0 0 0 0 0 0 0 0
0 0 0 0 0 0 0 0 0 0 0 0 0 0 0 0 3 10 13 35 26 26 29 13 3 0 0 0 0 0 0 0 0 0 0 0 0 0 0 0 0 0 0 0 0 0 0 0 0
0 0 0 0 0 0 0 0 0 0 0 0 0 0 0 0 0 10 23 26 23 19 13 6 3 0 0 0 0 0 0 0 0 0 0 0 0 0 0 0 0 0 0 0 0 0 0 0 0
0 0 0 0 0 0 0 0 0 0 0 0 0 0 0 0 0 0 3 6 10 10 6 6 0 0 0 0 0 0 0 0 0 0 0 0 0 0 0 0 0 0 0 0 0 0 0 0 0
0 0 0 0 0 0 0 0 0 0 0 0 0 0 0 0 0 0 0 0 3 0 0 0 0 0 0 0 0 0 0 0 0 0 0 0 0 0 0 0 0 0 0 0 0 0 0 0 0
0 0 0 0 0 0 0 0 0 0 0 0 0 0 0 0 0 0 0 0 3 0 0 0 0 0 3 3 0 0 0 0 0 0 0 0 0 0 0 0 0 0 0 0 0 0 0 0 0
0 0 0 0 0 0 0 0 0 0 0 0 0 0 0 0 0 0 0 0 0 0 0 0 0 3 0 0 0 0 0 0 0 0 0 0 0 0 0 0 0 0 0 0 0 0 0 0 0
0 0 0 0 0 0 0 0 0 0 0 0 0 0 0 0 0 0 0 0 0 3 0 3 3 0 0 0 0 0 0 0 0 0 0 0 0 0 0 0 0 0 0 0 0 0 0 0 0
0 0 0 0 0 0 0 0 0 0 0 0 0 0 0 0 0 0 0 0 0 0 3 3 3 3 0 0 0 0 0 0 0 0 0 0 0 0 0 0 0 0 0 0 0 0 0 0 0

GEFSSGP_con_cape1000_018.txt.gz
Probability
100 100 100 100 6 0 0 0 0 0 0 0 0 0 0 0 0 0 65 0 0 74 100 100 100 100 100 100 100 100 100 100 100 100 100 100 94 97 94 87 84 100 100 100 100 100 100 100 100
100 100 87 13 0 0 0 0 0 0 0 0 0 0 0 0 0 0 0 0 0 55 100 100 100 100 100 100 100 100 100 100 100 100 97 94 90 94 97 97 97 100 100 100 100 100 97 97 100
100 90 26 0 0 0 0 0 0 0 0 0 0 0 0 0 0 0 0 0 0 39 100 100 100 100 100 100 100 100 100 100 100 100 97 94 90 90 97 100 97 100 100 97 100 100 100 97 97
94 39 0 0 0 0 0 0 0 0 0 0 0 0 0 0 0 0 0 0 0 23 65 100 100 100 100 100 100 100 100 100 100 100 100 97 97 87 90 100 97 90 87 87 94 94 100 97 100
42 6 0 0 0 0 0 0 0 0 0 0 0 0 0 0 0 0 0 0 0 10 39 100 100 100 100 100 100 100 100 100 100 100 100 100 90 84 97 100 94 90 74 52 65 84 90 90 100
29 0 0 0 0 0 0 0 0 0 0 0 0 0 0 3 0 0 3 3 0 6 13 77 100 100 100 100 100 100 100 100 100 100 100 97 87 87 97 97 87 84 52 19 29 45 65 87 100
23 0 0 0 0 0 0 0 0 0 0 0 0 0 0 3 6 0 0 0 0 3 6 45 94 100 100 100 100 100 100 100 100 100 100 100 94 87 77 81 81 65 29 0 6 23 45 84 97
23 0 0 0 0 0 0 0 0 0 0 0 0 0 0 3 10 3 6 13 3 0 6 19 71 71 94 100 100 100 100 100 100 100 100 100 94 74 52 52 52 16 0 0 3 3 48 84 100
16 0 0 0 0 0 0 0 0 0 0 0 0 0 0 3 10 13 29 26 19 6 0 10 52 68 90 97 90 100 100 100 100 100 100 100 97 61 42 19 19 3 0 0 3 3 39 84 94
16 0 0 0 0 0 0 0 0 0 0 0 0 0 3 23 19 23 23 16 32 23 16 23 45 68 87 90 94 97 94 100 100 100 100 100 68 29 3 6 6 3 3 0 0 3 0 0 0
6 0 0 0 0 3 0 0 0 0 0 0 0 3 13 19 19 23 16 10 16 29 65 52 77 74 87 100 100 97 100 100 97 100 97 94 23 13 0 0 16 10 0 0 0 0 0 0 0
19 3 3 3 0 0 3 0 0 0 0 0 0 0 23 23 16 19 3 3 6 10 32 68 71 71 94 100 100 100 100 100 100 100 71 58 26 3 0 3 3 19 3 0 0 0 0 0 0
3 6 3 0 0 0 3 0 0 0 0 0 0 0 23 16 13 6 0 0 3 13 29 42 42 29 77 100 100 97 100 97 94 100 55 23 16 3 3 0 3 3 0 0 0 0 0 0 0
0 0 0 0 0 0 0 0 0 0 0 0 0 0 13 16 13 3 0 0 0 13 13 35 55 45 55 100 100 100 94 100 81 90 52 0 3 3 3 0 0 0 0 0 0 0 0 0 0
0 0 0 0 0 0 0 0 0 0 0 0 0 0 3 19 16 10 3 0 3 10 10 23 61 58 65 74 100 100 100 84 84 81 26 0 3 6 0 0 0 0 0 0 0 0 0 0 0
0 0 0 0 0 0 0 0 0 0 0 0 0 0 0 3 6 13 10 3 3 13 16 26 90 87 90 100 100 100 97 97 94 84 35 0 0 3 29 10 0 0 0 0 0 0 0 0 0
0 0 0 0 0 0 0 0 0 0 0 0 0 0 0 0 3 0 0 0 10 23 39 52 90 94 97 100 100 100 94 100 100 84 42 32 10 6 35 35 13 0 0 0 0 0 0 3 0
0 0 0 0 0 0 0 0 0 0 0 0 0 0 0 0 0 0 0 0 6 39 65 84 100 100 100 100 100 100 100 100 100 97 97 58 74 45 58 81 13 3 6 6 3 0 0 6 6
0 0 0 0 0 0 0 0 0 0 0 0 0 0 0 0 0 0 0 0 0 16 61 87 100 100 100 100 100 100 100 100 100 100 97 100 84 55 61 71 32 45 39 16 0 35 0 16 0
0 0 0 0 0 0 0 0 0 0 0 0 0 0 0 0 0 6 10 23 3 0 19 65 97 100 100 100 100 100 100 100 100 100 100 97 84 55 13 58 94 90 94 58 6 55 87 45 0
0 0 0 0 0 0 0 0 0 0 0 0 0 0 0 0 0 6 35 45 48 26 13 13 81 100 100 100 97 97 97 97 94 94 97 97 84 77 81 77 81 81 71 87 68 52 68 84 0
0 0 0 0 0 0 0 0 0 0 0 0 0 0 0 0 0 3 19 48 68 84 55 39 77 87 90 87 74 65 55 48 42 48 74 77 68 71 81 77 58 48 58 58 48 10 58 74 39
0 0 0 0 0 0 0 0 0 0 0 0 0 0 0 0 0 0 3 13 39 71 87 74 90 77 68 42 26 16 19 16 29 32 35 55 71 81 81 74 55 32 39 29 3 3 16 48 55
0 0 0 0 0 0 0 0 0 0 0 0 0 0 0 0 0 0 0 3 16 26 48 58 55 35 23 6 6 3 3 3 13 23 26 39 55 65 48 48 39 19 16 6 6 3 0 23 3
0 0 0 0 0 0 0 0 0 0 0 0 0 0 0 0 0 0 0 3 3 6 13 19 10 6 3 0 0 0 0 0 3 6 16 32 39 58 35 16 19 16 3 0 0 0 0 0 0
0 0 0 0 0 0 0 0 0 0 0 0 0 0 0 0 0 0 0 3 3 3 3 6 6 3 0 0 0 0 0 3 3 3 10 13 26 39 13 6 3 0 0 0 0 3 0 0 0
0 0 0 0 0 0 0 0 0 0 0 0 0 0 0 0 0 0 0 0 3 0 3 3 0 0 0 0 0 0 0 3 6 3 3 3 0 0 0 0 0 0 0 0 0 0 0 0 0
0 0 0 0 0 0 0 0 0 0 0 0 0 0 0 0 0 0 0 3 0 0 0 0 0 0 0 0 3 0 0 6 10 3 3 0 0 0 0 0 0 0 0 0 0 0 0 0 0
0 0 0 0 0 0 0 0 0 0 0 0 0 0 0 0 0 0 0 0 0 0 0 0 3 0 0 0 3 3 3 6 3 6 6 6 0 0 0 0 0 0 0 0 0 0 0 0 0
0 0 0 0 0 0 0 0 0 0 0 0 0 0 0 0 0 0 0 0 0 0 3 3 3 3 6 6 6 3 6 6 13 6 10 3 0 0 0 0 0 0 0 0 0 0 0 0 0

GEFSSGP_con_cape1000_024.txt.gz
Probability
100 100 100 100 100 74 0 0 0 0 0 0 0 0 0 0 0 68 94 6 90 97 100 100 100 100 100 100 100 100 100 100 100 100 94 100 94 94 94 94 100 100 100 100 97 100 100 100 90
100 100 100 100 100 0 0 0 0 0 0 0 0 0 0 0 0 0 10 39 97 94 97 100 100 100 100 100 100 100 100 100 100 97 94 97 97 94 87 90 100 100 100 100 100 97 97 100 100
100 100 100 97 3 0 0 0 0 0 0 0 0 0 0 0 0 0 3 26 94 81 94 100 100 100 100 100 100 100 100 100 97 94 90 87 90 100 97 97 100 100 100 100 100 97 97 97 97
100 100 97 42 0 0 0 0 0 0 0 0 0 0 0 0 0 0 0 13 81 90 100 100 100 100 100 100 100 100 100 100 97 97 90 90 90 97 100 100 94 84 90 94 97 100 94 97 100
100 100 87 6 0 0 0 0 0 0 0 0 0 0 0 0 0 0 0 13 71 100 100 100 100 100 100 100 100 100 100 100 97 100 97 94 94 97 94 97 84 68 61 65 90 90 94 100 100
100 94 23 0 0 0 0 0 0 0 0 0 0 0 3 0 0 0 0 6 32 97 100 100 100 100 100 100 100 100 100 100 100 100 97 90 94 100 100 90 81 39 16 23 55 74 94 100 97
100 100 29 0 3 0 0 0 0 0 0 0 0 0 0 0 0 0 0 3 13 61 100 100 100 100 100 100 100 100 100 100 100 100 100 94 94 100 94 90 71 16 6 3 16 55 77 94 100
100 100 29 0 6 0 0 0 0 0 0 0 0 0 10 0 0 0 0 0 3 16 84 87 87 97 97 100 100 100 100 100 100 100 100 94 87 94 94 87 68 0 0 0 0 16 52 84 94
77 97 13 10 26 3 0 0 0 0 0 0 0 0 6 0 0 0 0 0 0 3 23 74 74 81 87 65 100 100 100 100 100 100 100 94 81 61 81 81 45 3 0 0 0 0 16 42 61
71 84 0 10 3 0 0 0 0 0 0 0 0 0 6 0 0 0 0 0 0 0 0 23 77 94 100 97 97 84 90 100 100 97 100 94 68 39 23 52 45 3 0 0 0 0 6 3 0
6 16 6 0 0 0 0 0 0 0 0 0 0 0 6 6 0 0 3 0 0 0 0 10 58 87 97 100 97 97 100 100 94 100 94 90 87 29 0 6 10 3 0 0 0 0 0 0 0
3 3 3 0 0 0 0 0 0 0 0 0 0 0 6 6 6 6 3 0 0 3 6 6 39 84 94 100 100 97 94 97 90 97 100 90 87 32 0 0 0 0 0 0 0 0 0 0 0
6 6 3 3 0 0 0 0 6 0 0 0 0 0 3 6 6 6 3 0 0 23 29 6 45 58 77 100 100 100 94 84 77 87 97 84 81 35 3 0 0 0 0 0 0 0 0 0 0
0 3 3 3 3 0 0 0 0 0 0 0 0 0 0 3 10 6 0 0 0 10 13 23 32 45 87 100 100 97 97 94 81 90 90 68 48 39 10 0 3 0 0 0 0 0 0 0 0
0 0 0 0 0 0 0 0 0 0 0 0 0 0 3 3 6 3 0 0 0 0 3 10 19 19 52 94 97 97 100 87 87 84 61 10 10 10 6 0 0 0 0 0 0 0 0 0 0
0 0 0 0 0 0 0 0 0 0 0 0 0 0 0 3 0 0 3 0 6 6 0 0 10 10 10 45 90 94 94 90 90 77 61 10 6 3 6 3 3 0 0 0 0 0 0 0 0
0 0 0 0 0 0 0 0 0 0 0 0 0 0 0 0 0 0 0 0 6 10 6 3 0 6 10 32 94 97 90 100 87 84 68 13 6 0 16 23 10 0 0 0 0 0 0 0 0
0 0 0 0 0 0 0 0 0 0 0 0 0 0 0 0 0 0 3 13 10 3 6 13 10 23 16 71 65 100 100 100 90 84 94 39 26 10 35 16 0 0 0 0 0 0 0 0 0
0 0 0 0 0 0 0 0 0 0 0 0 0 0 0 0 0 0 10 3 13 23 16 6 35 39 74 97 100 100 100 100 97 94 84 77 65 45 35 13 0 6 6 0 0 0 0 0 0
0 0 0 0 0 0 0 0 0 0 0 0 0 0 0 0 0 3 6 10 26 42 45 48 48 45 68 100 100 100 100 100 100 97 90 81 52 23 23 19 32 19 3 0 0 0 0 0 0
0 0 0 0 0 0 0 0 0 0 0 0 0 0 0 0 0 0 6 6 3 13 26 52 81 84 81 97 100 94 97 94 87 84 74 48 32 26 19 13 13 3 3 0 0 3 0 0 0
0 0 0 0 0 0 0 0 0 0 0 0 0 0 0 0 0 0 0 0 3 6 23 35 65 74 74 81 94 84 77 68 58 52 58 42 26 16 3 0 3 0 0 0 0 0 0 0 0
0 0 0 0 0 0 0 0 0 0 0 0 0 0 0 0 0 0 0 3 6 3 13 32 42 35 45 48 68 71 39 19 16 13 16 6 6 0 3 0 0 0 0 0 0 0 0 0 0
0 0 0 0 0 0 0 0 0 0 0 0 0 0 0 0 0 0 0 3 3 3 3 3 13 13 19 26 23 19 6 0 0 0 0 0 0 0 0 0 0 0 0 0 0 0 0 0 0
0 0 0 0 0 0 0 0 0 0 0 0 0 0 0 0 0 0 0 0 3 3 3 3 3 3 3 3 0 0 0 0 0 0 0 0 0 0 0 0 0 0 0 0 0 0 0 0 0
0 0 0 0 0 0 0 0 0 0 0 0 0 0 0 0 0 0 0 3 3 3 3 0 0 0 0 0 0 0 0 0 0 0 0 0 0 0 0 0 0 0 0 0 0 0 0 0 0
0 0 0 0 0 0 0 0 0 0 0 0 0 0 0 0 0 0 0 0 0 0 0 0 0 0 0 0 0 0 0 0 0 0 0 0 0 0 0 0 0 0 0 0 0 0 0 0 0
0 0 0 0 0 0 0 0 0 0 0 0 0 0 0 0 0 0 0 0 0 0 0 0 0 0 0 0 0 0 0 0 0 0 0 0 0 0 0 0 0 0 0 0 0 0 0 0 0
0 0 0 0 0 0 0 0 0 0 0 0 0 0 0 0 0 0 0 0 0 0 0 0 0 0 0 0 0 0 0 0 0 0 0 0 0 0 0 0 0 0 0 0 0 0 0 0 0
0 0 0 0 0 0 0 0 0 0 0 0 0 0 0 0 0 0 0 0 0 0 0 3 0 0 0 0 0 0 0 3 3 0 0 0 0 0 0 0 0 0 0 0 0 0 0 0 0

GEFSSGP_con_cape1000_030.txt.gz
Probability
100 97 100 90 0 0 0 0 0 0 0 0 0 0 0 0 0 0 0 35 3 55 100 100 100 100 100 100 100 100 100 100 100 100 100 100 100 100 100 100 100 100 100 97 100 100 100 100 97
100 97 94 26 0 0 0 0 0 0 0 0 0 0 0 0 0 3 29 29 16 84 97 97 100 100 100 100 100 100 100 100 100 100 100 100 100 100 100 100 100 100 100 97 97 100 100 100 100
100 100 71 0 0 0 0 0 0 0 0 0 0 0 0 0 0 10 35 29 39 90 94 100 100 100 100 100 100 100 100 100 100 100 100 100 97 97 100 100 100 100 90 94 94 100 100 100 100
97 45 6 0 0 0 0 0 0 0 0 0 0 0 0 0 0 52 55 48 52 87 100 100 100 100 100 100 100 100 100 100 100 100 100 100 100 97 97 94 94 90 81 84 87 97 97 97 100
52 19 0 0 0 0 0 0 0 0 0 0 0 0 0 0 55 81 65 58 52 84 100 100 100 100 100 100 100 100 97 97 100 100 100 100 100 97 94 87 84 77 68 74 90 94 100 100 100
0 0 0 0 0 0 0 0 0 0 0 0 0 0 0 0 52 65 58 58 68 84 100 100 100 100 100 100 100 100 97 97 100 100 100 100 97 94 94 84 71 48 52 58 84 94 100 100 97
0 3 0 0 0 0 0 0 0 0 0 0 0 0 0 0 13 52 55 74 81 87 87 100 100 100 100 100 100 100 100 100 100 97 97 97 100 97 94 77 48 23 23 32 55 77 84 94 94
0 0 0 0 0 0 0 0 0 0 0 0 0 0 0 0 0 26 74 81 84 74 87 100 100 100 100 100 100 100 100 100 100 100 100 97 100 97 94 71 35 10 6 3 26 55 68 77 58
0 0 0 0 0 0 0 0 0 0 0 0 0 0 0 0 0 13 65 87 87 84 87 97 100 100 100 100 100 100 100 100 100 100 100 100 97 90 87 68 42 13 0 0 3 19 29 39 35
0 0 0 0 0 0 0 0 0 0 0 0 0 0 0 0 0 10 52 81 90 81 71 74 81 81 81 87 100 100 100 100 100 97 94 84 10 19 55 61 71 29 10 0 0 6 10 6 0
0 0 0 0 0 0 0 0 0 0 0 0 0 0 0 0 0 3 16 48 77 84 77 35 35 45 58 42 65 81 77 97 90 77 81 19 0 3 10 3 55 16 6 0 0 0 0 0 0
0 0 0 0 0 0 0 0 0 0 0 0 0 0 0 0 0 0 3 13 26 55 71 55 32 23 19 16 35 32 42 52 71 55 55 6 0 0 0 0 3 0 0 0 0 0 0 0 0
0 0 0 0 0 0 0 0 0 0 0 0 0 0 0 0 0 0 0 0 0 16 39 58 48 39 19 19 19 16 10 23 23 23 39 6 0 0 0 0 0 0 0 0 0 0 0 0 0
0 0 0 0 0 0 0 0 0 0 0 0 0 0 0 0 0 0 0 0 0 0 6 45 58 42 32 19 16 10 6 13 13 6 16 10 0 0 0 0 0 0 0 0 0 0 0 0 0
0 0 0 0 0 0 0 0 0 0 0 0 0 0 0 0 0 0 0 0 0 0 3 16 32 39 29 23 13 13 10 13 6 3 3 3 0 0 0 0 0 0 0 0 0 0 0 0 0
0 0 0 0 0 0 0 0 0 0 0 0 0 0 0 0 0 0 0 0 0 0 3 3 19 26 19 29 10 16 13 3 0 0 0 0 0 0 0 0 0 0 0 0 0 0 0 0 0
0 0 0 0 0 0 0 0 0 0 0 0 0 0 0 0 0 0 0 0 0 0 0 3 3 10 16 19 23 16 32 16 6 3 0 0 0 0 0 0 0 0 0 0 0 0 0 0 0
0 0 0 0 0 0 0 0 0 0 0 0 0 0 0 0 0 0 0 0 0 0 0 3 0 0 3 10 10 10 6 10 10 6 0 0 0 0 0 0 0 0 0 0 0 0 0 0 0
0 0 0 0 0 0 0 0 0 0 0 0 0 0 0 0 0 0 0 0 0 0 0 0 3 0 0 0 3 6 10 16 10 3 0 0 0 0 0 0 0 0 0 0 0 0 0 0 0
0 0 0 0 0 0 0 0 0 0 0 0 0 0 0 0 0 0 0 0 0 0 0 0 0 3 0 0 0 3 10 10 10 6 0 0 0 0 0 0 0 0 0 0 0 0 0 0 0
0 0 0 0 0 0 0 0 0 0 0 0 0 0 0 0 0 0 0 0 0 0 3 0 3 3 3 0 0 0 0 0 0 0 0 0 0 0 0 0 0 0 0 0 0 0 0 0 0
0 0 0 0 0 0 0 0 0 0 0 0 0 0 0 0 0 0 0 0 0 0 3 3 3 0 0 0 0 0 0 3 0 0 0 0 0 0 0 0 0 0 0 0 0 0 0 0 0
0 0 0 0 0 0 0 0 0 0 0 0 0 0 0 0 0 0 0 0 0 0 0 3 0 0 0 0 0 0 0 3 3 0 0 0 0 0 0 0 0 0 0 0 0 0 0 0 0
0 0 0 0 0 0 0 0 0 0 0 0 0 0 0 0 0 0 0 0 0 0 0 0 0 0 0 0 0 0 3 0 0 0 0 0 0 0 0 0 0 0 0 0 0 0 0 0 0
0 0 0 0 0 0 0 0 0 0 0 0 0 0 0 0 0 0 0 0 0 0 0 0 0 0 0 0 0 0 0 0 0 0 0 0 0 0 0 0 0 0 0 0 0 0 0 0 0
0 0 0 0 0 0 0 0 0 0 0 0 0 0 0 0 0 0 0 0 0 0 0 0 0 0 0 0 0 0 0 0 0 0 0 0 0 0 0 0 0 0 0 0 0 0 0 0 0
0 0 0 0 0 0 0 0 0 0 0 0 0 0 0 0 0 0 0 0 0 0 0 0 0 0 0 0 0 0 0 0 0 0 0 0 0 0 0 0 0 0 0 0 0 0 0 0 0
0 0 0 0 0 0 0 0 0 0 0 0 0 0 0 0 0 0 0 0 0 0 0 0 0 0 0 0 0 0 0 0 0 0 0 0 0 0 0 0 0 0 0 0 0 0 0 0 0
0 0 0 0 0 0 0 0 0 0 0 0 0 0 0 0 0 0 0 0 0 0 0 0 0 0 0 0 0 0 0 0 0 0 0 0 0 0 0 0 0 0 0 0 0 0 0 0 0
0 0 0 0 0 0 0 0 0 0 0 0 0 0 0 0 0 0 0 0 0 0 0 0 0 0 0 0 0 0 0 0 0 0 0 0 0 0 0 0 0 0 0 0 0 0 0 0 0

GEFSSGP_con_cape1000_036.txt.gz
Probability
100 97 84 10 0 0 0 0 0 0 0 0 0 0 0 0 0 0 0 0 0 29 90 100 100 100 100 100 100 100 100 100 100 100 97 100 100 100 100 100 100 100 100 100 100 100 100 100 100
100 100 26 0 0 0 0 0 0 0 0 0 0 0 0 0 0 3 0 0 10 65 97 100 100 100 100 100 100 100 100 100 100 97 97 94 100 100 100 100 100 94 94 100 100 100 100 100 100
97 74 0 0 0 0 0 0 0 0 0 0 0 0 0 0 19 6 3 0 19 74 90 100 100 100 100 100 100 100 100 100 97 94 90 100 100 100 100 100 97 94 94 94 97 100 100 100 100
65 0 0 0 0 0 0 0 0 0 0 0 0 0 0 0 23 16 0 3 35 81 90 100 100 100 100 100 100 100 100 94 90 94 94 90 90 94 97 90 87 77 77 84 90 100 100 100 97
3 0 0 0 0 0 0 0 0 0 0 0 0 0 0 23 32 16 0 6 48 77 94 100 100 100 100 100 100 100 97 97 94 94 97 90 87 90 87 77 74 65 61 52 81 90 97 100 100
0 0 0 0 0 0 0 0 0 0 0 0 0 0 0 48 32 13 0 3 55 77 100 100 100 100 100 100 100 100 97 97 94 94 100 94 94 94 81 71 65 52 35 45 74 90 97 100 100
0 0 0 0 0 0 0 0 0 0 0 0 0 0 3 55 42 19 13 10 52 84 100 100 100 100 100 100 100 100 97 97 97 97 97 94 94 94 81 58 35 29 19 23 35 58 77 81 87
0 0 0 0 0 0 0 0 0 0 0 0 0 0 0 45 55 29 29 26 58 74 90 97 100 100 100 100 100 100 97 97 97 97 97 100 90 94 84 61 42 13 10 6 13 26 39 52 61
0 0 0 0 0 0 0 0 0 0 0 0 0 0 0 32 58 42 48 58 61 68 65 81 90 94 97 97 100 100 100 100 100 97 97 100 94 94 87 71 42 19 0 0 0 3 6 16 13
0 0 0 0 0 0 0 0 0 0 0 0 0 0 6 48 45 45 68 71 71 68 61 81 84 84 94 97 97 100 100 100 100 97 97 87 42 19 71 61 52 23 6 0 0 0 0 0 0
0 0 0 0 0 0 0 0 0 0 0 0 0 0 23 32 29 32 42 42 52 61 68 74 77 81 87 90 65 94 94 94 94 90 81 48 3 3 32 0 13 19 13 0 0 0 0 0 0
0 0 0 0 0 0 0 0 0 0 0 0 0 3 6 16 13 16 6 16 10 26 48 48 74 58 61 58 42 61 81 84 87 65 45 10 0 0 0 0 0 0 0 0 0 0 0 0 0
0 0 0 0 0 0 0 0 0 0 0 0 0 0 0 0 3 0 3 3 0 3 13 26 39 45 45 32 16 42 58 65 68 48 32 13 0 0 0 0 0 0 0 0 0 0 0 0 0
0 0 0 0 0 0 0 0 0 0 0 0 0 0 0 0 0 0 0 0 0 0 0 10 16 23 16 26 23 19 45 48 42 45 29 16 6 0 0 0 0 0 0 0 0 0 0 0 0
0 0 0 0 0 0 0 0 0 0 0 0 0 0 0 0 0 0 0 0 0 0 0 0 13 13 13 19 13 16 16 23 29 39 19 16 10 0 0 0 0 0 0 0 0 0 0 0 0
0 0 0 0 0 0 0 0 0 0 0 0 0 0 0 0 0 0 0 0 0 0 0 0 3 13 6 10 10 23 13 10 10 13 13 13 10 6 0 0 0 0 0 0 0 0 0 0 0
0 0 0 0 0 0 0 0 0 0 0 0 0 0 0 0 0 0 0 0 0 0 0 0 0 3 6 13 13 19 16 13 10 3 3 3 10 10 3 0 0 0 0 0 0 0 0 0 0
0 0 0 0 0 0 0 0 0 0 0 0 0 0 0 0 0 0 0 0 0 0 0 0 0 0 3 6 6 6 13 16 16 10 3 3 3 3 3 0 0 0 0 0 0 0 0 0 0
0 0 0 0 0 0 0 0 0 0 0 0 0 0 0 0 0 0 0 0 0 0 0 0 0 0 0 0 0 3 6 13 10 6 6 3 0 0 0 0 0 0 0 0 0 0 0 0 0
0 0 0 0 0 0 0 0 0 0 0 0 0 0 0 0 0 0 0 0 0 0 0 0 0 0 0 0 0 0 6 0 6 6 3 0 0 0 0 0 0 0 0 0 0 0 0 0 0
0 0 0 0 0 0 0 0 0 0 0 0 0 0 0 0 0 0 0 0 0 0 0 0 0 0 0 0 0 0 0 0 3 6 3 3 0 0 0 0 0 0 0 0 0 0 0 0 0
0 0 0 0 0 0 0 0 0 0 0 0 0 0 0 0 0 0 0 0 0 0 0 0 0 0 0 0 0 0 0 0 6 3 0 0 0 0 0 0 0 0 0 0 0 0 0 0 0
0 0 0 0 0 0 0 0 0 0 0 0 0 0 0 0 0 0 0 0 0 0 0 0 0 0 0 0 0 0 0 0 0 0 0 0 0 0 0 0 0 0 0 0 0 0 0 0 0
0 0 0 0 0 0 0 0 0 0 0 0 0 0 0 0 0 0 0 0 0 0 0 0 0 0 0 0 0 0 0 0 0 0 0 0 0 0 0 0 0 0 0 0 0 0 0 0 0
0 0 0 0 0 0 0 0 0 0 0 0 0 0 0 0 0 0 0 0 0 0 0 0 0 0 0 0 0 0 0 0 0 0 0 0 0 0 0 0 0 0 0 0 0 0 0 0 0
0 0 0 0 0 0 0 0 0 0 0 0 0 0 0 0 0 0 0 0 0 0 0 0 0 0 0 0 0 0 0 0 0 0 0 0 0 0 0 0 0 0 0 0 0 0 0 0 0
0 0 0 0 0 0 0 0 0 0 0 0 0 0 0 0 0 0 0 0 0 0 0 0 0 0 0 0 0 0 0 0 0 0 0 0 0 0 0 0 0 0 0 0 0 0 0 0 0
0 0 0 0 0 0 0 0 0 0 0 0 0 0 0 0 0 0 0 0 0 0 0 0 0 0 0 0 0 0 0 0 0 0 0 0 0 0 0 0 0 0 0 0 0 0 0 0 0
0 0 0 0 0 0 0 0 0 0 0 0 0 0 0 0 0 0 0 0 0 0 0 0 0 0 0 0 0 0 0 0 0 0 0 0 0 0 0 0 0 0 0 0 0 0 0 0 0
0 0 0 0 0 0 0 0 0 0 0 0 0 0 0 0 0 0 0 0 0 0 0 0 0 0 0 0 0 0 0 0 0 0 0 0 0 0 0 0 0 0 0 0 0 0 0 0 0

GEFSSGP_con_cape1000_042.txt.gz
Probability
100 100 100 97 3 0 0 0 0 0 0 0 0 0 0 0 0 10 16 3 3 55 100 100 100 100 100 100 100 100 100 100 100 100 100 100 100 100 100 100 97 100 97 97 100 100 100 100 100
100 100 77 10 0 0 0 0 0 0 0 0 0 0 0 0 0 6 6 3 16 52 100 100 100 100 100 100 100 100 100 100 100 100 100 100 100 100 100 100 97 97 97 97 100 100 97 100 100
100 90 45 0 0 0 0 0 0 0 0 0 0 0 0 0 0 0 10 6 16 52 100 100 100 100 100 100 100 100 100 100 100 100 100 100 97 97 97 97 94 90 94 97 100 100 97 94 97
87 55 3 0 0 0 0 0 0 0 0 0 0 0 0 10 0 0 6 10 23 65 97 100 100 100 100 100 100 100 100 100 100 100 97 97 97 94 90 84 81 81 87 90 97 97 94 90 94
55 23 0 0 0 0 0 0 0 0 0 0 0 0 3 39 29 10 13 10 23 65 90 100 100 100 100 100 100 100 100 100 100 100 94 97 90 94 87 77 61 65 68 74 81 84 94 90 94
58 0 0 0 0 0 0 0 0 0 0 0 0 0 10 61 58 23 19 16 10 32 65 100 100 100 100 100 100 100 97 97 97 97 97 94 90 87 81 68 55 52 39 58 81 84 84 90 84
52 10 0 0 0 0 0 0 0 0 0 0 0 0 10 65 90 58 58 42 19 16 35 90 100 100 100 100 100 100 97 94 97 97 97 94 94 90 84 68 55 29 32 35 58 74 77 81 84
45 3 0 0 0 0 3 0 0 0 3 3 6 3 10 71 94 87 74 65 45 32 35 55 77 84 97 100 100 100 97 100 100 97 100 97 94 94 87 74 45 23 13 16 35 39 61 58 65
3 0 0 0 0 0 0 0 0 3 10 10 13 39 52 87 94 87 71 61 61 42 32 42 55 74 84 84 97 100 97 97 97 100 100 100 97 84 90 65 39 19 6 6 16 26 35 39 35
3 0 0 6 0 0 0 0 0 3 3 0 10 42 61 61 68 71 58 52 52 42 35 39 52 68 74 84 94 100 100 100 97 97 94 90 81 71 48 58 48 23 10 3 3 16 10 3 10
0 0 0 0 0 3 0 0 0 0 0 0 13 29 42 48 45 35 26 32 35 58 48 55 65 65 71 90 90 100 100 100 97 94 97 100 68 74 48 71 65 29 6 3 3 6 3 0 0
0 3 3 3 3 0 0 0 0 0 3 6 13 16 19 13 19 16 10 10 16 23 26 26 48 65 77 87 87 100 100 100 100 97 94 100 97 77 35 55 16 23 10 6 0 0 0 0 0
0 3 3 0 0 0 0 0 0 0 0 3 3 3 3 3 3 3 6 6 3 6 10 10 19 23 52 81 100 90 100 97 94 100 97 100 100 87 42 26 19 16 3 6 3 0 0 0 0
0 0 0 0 0 0 0 0 0 0 0 0 0 0 0 0 0 0 3 3 3 0 3 0 3 13 19 42 68 90 94 100 94 97 94 84 97 94 77 48 42 26 13 3 0 0 0 0 0
0 0 0 0 0 0 0 0 0 0 0 0 0 0 0 0 0 0 0 0 0 0 0 0 0 3 10 16 23 55 68 84 81 90 81 74 87 90 87 61 35 23 23 6 3 0 0 0 0
0 0 0 0 0 0 0 0 0 0 0 0 0 0 0 0 0 0 0 0 0 0 0 0 0 0 6 13 16 29 42 58 77 81 87 77 74 77 90 90 65 42 26 19 13 3 3 0 0
0 0 0 0 0 0 0 0 0 0 0 0 0 0 0 0 0 0 0 0 0 0 0 0 0 0 0 6 13 16 23 45 58 68 61 68 71 74 97 100 87 52 68 55 13 6 3 3 0
0 0 0 0 0 0 0 0 0 0 0 0 0 0 0 0 0 0 0 0 0 0 0 0 0 0 0 0 6 19 19 42 61 74 68 68 71 68 87 90 77 74 81 74 42 10 3 3 3
0 0 0 0 0 0 0 0 0 0 0 0 0 0 0 0 0 0 0 0 0 0 0 0 0 0 0 0 3 13 16 10 45 52 68 71 58 61 74 74 71 81 81 68 39 29 10 6 3
0 0 0 0 0 0 0 0 0 0 0 0 0 0 0 0 0 0 0 0 0 0 0 0 0 0 0 0 0 0 10 23 26 52 48 48 65 68 48 68 61 58 58 48 42 29 19 13 6
0 0 0 0 0 0 0 0 0 0 0 0 0 0 0 0 0 0 0 0 0 0 0 0 0 0 0 0 0 0 10 23 35 48 55 55 52 58 52 48 58 52 48 42 19 23 19 19 3
0 0 0 0 0 0 0 0 0 0 0 0 0 0 0 0 0 0 0 0 0 0 0 0 0 0 0 0 3 3 0 10 19 35 48 58 68 58 55 45 52 48 48 35 19 6 10 16 10
0 0 0 0 0 0 0 0 0 0 0 0 0 0 0 0 0 0 0 0 0 0 0 0 0 0 3 3 6 6 6 13 16 35 35 42 55 68 61 52 45 39 39 32 16 10 3 10 3
0 0 0 0 0 0 0 0 0 0 0 0 0 0 0 0 0 0 0 0 0 0 0 0 3 3 10 10 6 3 6 10 19 26 29 29 42 42 42 45 48 45 48 39 23 19 23 6 3
0 0 0 0 0 0 0 0 0 0 0 0 0 0 0 0 0 0 0 0 0 0 0 0 0 0 3 6 6 6 6 10 16 19 23 19 29 23 23 23 35 39 35 39 26 32 23 10 10
0 0 0 0 0 0 0 0 0 0 0 0 0 0 0 0 0 0 0 0 0 0 0 0 0 0 0 0 3 6 6 6 13 6 13 19 23 19 23 16 10 19 16 6 19 23 10 6 6
0 0 0 0 0 0 0 0 0 0 0 0 0 0 0 0 0 0 0 0 0 0 0 0 0 0 0 0 0 3 3 6 6 3 10 10 6 3 3 3 6 3 3 6 10 10 6 3 3
0 0 0 0 0 0 0 0 0 0 0 0 0 0 0 0 0 0 0 0 0 0 0 0 0 0 0 0 0 0 0 3 3 3 6 6 3 3 3 3 3 3 0 0 0 0 0 0 0
0 0 0 0 0 0 0 0 0 0 0 0 0 0 0 0 0 0 0 0 0 0 0 0 0 0 0 0 0 0 0 0 0 3 3 3 6 3 3 3 0 0 0 0 0 0 0 0 0
0 0 0 0 0 0 0 0 0 0 0 0 0 0 0 0 0 0 0 0 0 0 0 0 0 0 0 0 0 0 0 0 0 0 0 0 3 3 0 0 0 0 0 0 0 0 0 0 0

GEFSSGP_con_cape1000_048.txt.gz
Probability
100 100 100 100 100 74 0 0 0 0 0 0 0 0 0 6 45 55 74 84 90 94 97 100 100 100 100 100 100 100 100 100 100 97 100 100 100 97 97 94 97 97 90 90 94 97 97 97 97
100 100 100 97 94 0 0 0 0 0 0 0 0 0 0 0 0 0 52 90 94 94 90 100 100 100 100 100 100 100 100 100 100 100 100 100 100 100 100 97 94 97 90 87 94 94 97 97 97
100 100 100 97 6 0 0 0 0 0 0 0 0 0 0 3 0 3 39 61 97 100 100 100 100 100 100 100 100 100 100 100 100 100 100 97 97 97 97 94 87 84 81 87 90 90 94 90 97
100 100 97 55 0 0 0 0 0 0 0 0 0 0 0 0 0 6 10 42 94 100 100 100 100 100 100 100 100 100 100 100 97 90 90 94 90 90 90 87 90 81 87 81 87 84 81 87 84
100 100 52 6 0 0 3 3 0 0 3 0 0 3 6 3 3 0 6 32 71 100 100 100 100 100 100 100 100 100 100 100 100 94 97 94 90 90 84 77 74 74 71 71 74 74 71 84 81
97 77 6 0 0 6 3 3 10 10 19 16 6 10 16 10 13 3 6 26 55 97 100 100 100 100 100 100 100 100 97 97 97 97 94 90 90 87 84 81 61 52 52 55 68 68 71 84 77
97 84 19 23 42 23 10 10 16 26 23 26 13 19 16 16 23 23 16 16 29 61 100 100 100 100 100 100 100 100 97 94 94 94 97 94 94 87 84 81 65 45 42 39 45 48 61 58 68
100 87 13 32 42 26 10 16 19 32 42 48 42 29 35 32 45 35 35 23 19 26 61 81 94 100 100 100 100 100 100 100 97 97 97 97 94 90 84 81 71 52 29 19 35 39 52 65 74
61 55 23 39 58 42 19 13 16 26 35 29 35 39 29 32 45 45 45 29 35 26 29 35 48 61 94 100 100 100 100 100 100 100 100 100 94 90 94 81 87 58 32 23 23 42 52 58 71
58 87 45 74 68 39 23 16 16 29 13 16 16 19 23 26 23 26 29 19 32 29 19 13 19 32 61 74 97 100 100 100 97 97 97 97 87 81 87 90 87 71 52 35 32 45 58 52 6
45 65 42 32 32 29 16 6 6 10 6 6 6 10 16 16 13 13 6 3 6 6 6 6 13 13 19 52 81 90 97 100 97 84 81 68 61 71 71 48 71 55 29 10 10 23 13 3 0
26 32 26 16 26 26 19 0 0 3 3 3 3 3 3 3 3 3 3 10 6 3 6 3 3 10 10 16 32 84 90 90 87 77 65 55 42 35 35 39 42 13 13 6 6 3 0 0 0
19 13 23 13 6 0 0 0 0 0 0 0 0 0 0 0 0 3 3 3 3 3 3 3 3 3 3 10 26 26 55 84 77 74 61 61 39 23 13 19 23 6 6 3 10 0 0 0 0
10 3 3 3 6 0 0 0 0 0 0 0 0 0 0 0 0 0 0 0 0 0 0 0 3 0 0 0 3 6 19 48 65 74 55 48 52 42 26 23 13 6 3 6 0 0 0 0 0
3 0 0 0 0 0 0 0 0 0 0 0 0 0 0 0 0 0 0 0 0 0 0 0 0 0 0 0 3 3 16 23 32 52 45 48 48 48 26 16 13 13 6 0 0 0 0 0 0
0 0 0 0 0 0 0 0 0 0 0 0 0 0 0 0 0 0 0 0 0 0 0 0 0 0 0 0 0 3 6 16 29 23 42 35 35 39 42 39 26 13 0 0 0 0 0 0 0
0 0 0 0 0 0 0 0 0 0 0 0 0 0 0 0 0 0 0 0 0 0 0 0 0 0 0 0 0 3 10 13 10 29 35 42 29 45 48 55 42 16 16 6 0 0 0 0 0
0 0 0 0 0 0 0 0 0 0 0 0 0 0 0 0 0 0 0 0 0 0 0 0 0 0 0 0 0 3 10 19 19 26 35 42 55 45 32 45 42 23 29 13 3 0 0 0 0
0 0 0 0 0 0 0 0 0 0 0 0 0 0 0 0 0 0 0 0 0 0 0 0 0 0 0 0 0 3 6 13 16 19 26 48 45 55 42 32 32 23 26 10 0 0 0 0 0
0 0 0 0 0 0 0 0 0 0 0 0 0 0 0 0 0 0 0 0 0 0 0 0 0 0 0 0 0 0 0 0 13 13 16 32 35 42 42 42 29 29 13 10 6 0 0 0 0
0 0 0 0 0 0 0 0 0 0 0 0 0 0 0 0 0 0 0 0 0 0 0 0 0 0 0 0 3 0 3 3 10 23 19 32 32 35 39 29 45 26 13 13 19 10 0 0 0
0 0 0 0 0 0 0 0 0 0 0 0 0 0 0 0 0 0 0 0 0 0 0 0 0 0 3 3 3 0 0 0 6 16 19 26 32 32 39 29 26 23 19 10 13 6 3 0 0
0 0 0 0 0 0 0 0 0 0 0 0 0 0 0 0 0 0 0 0 0 0 0 0 0 3 0 0 3 0 0 3 10 16 16 29 29 35 39 32 29 23 19 16 13 0 0 0 0
0 0 0 0 0 0 0 0 0 0 0 0 0 0 0 0 0 0 0 0 0 0 0 0 0 0 0 3 3 0 0 6 3 6 13 19 19 29 35 26 29 23 19 23 16 13 3 0 0
0 0 0 0 0 0 0 0 0 0 0 0 0 0 0 0 0 0 0 0 0 0 0 0 0 0 0 0 3 3 0 3 6 10 13 13 19 16 23 23 23 23 19 16 6 10 6 0 0
0 0 0 0 0 0 0 0 0 0 0 0 0 0 0 0 0 0 0 0 0 0 0 0 0 0 0 0 0 0 0 3 6 3 3 6 6 10 10 19 16 19 13 6 3 3 0 3 0
0 0 0 0 0 0 0 0 0 0 0 0 0 0 0 0 0 0 0 0 0 0 0 0 0 0 0 0 0 0 0 0 3 3 6 3 3 3 3 3 6 10 6 0 0 0 0 0 0
0 0 0 0 0 0 0 0 0 0 0 0 0 0 0 0 0 0 0 0 0 0 0 0 0 0 0 0 0 0 0 0 0 0 0 3 6 3 3 3 3 3 3 0 0 0 0 0 0
0 0 0 0 0 0 0 0 0 0 0 0 0 0 0 0 0 0 0 0 0 0 0 0 0 0 0 0 0 0 0 0 0 0 0 0 0 0 3 3 3 3 3 3 0 0 0 0 0
0 0 0 0 0 0 0 0 0 0 0 0 0 0 0 0 0 0 0 0 0 0 0 0 0 0 0 0 0 0 0 0 0 0 0 0 0 0 3 3 3 3 3 0 0 0 0 0 0

GEFSSGP_con_cape1000_054.txt.gz
Probability
100 100 100 90 26 0 0 0 0 0 0 0 0 0 0 0 0 3 3 61 48 90 100 100 100 100 100 100 100 100 100 100 100 100 100 100 100 97 100 100 97 97 97 97 94 97 97 97 97
100 100 100 48 0 0 0 0 0 0 0 0 0 0 0 3 10 48 65 81 74 100 100 100 100 100 100 100 100 100 100 100 100 100 100 100 100 100 100 100 97 90 90 90 94 94 97 97 97
100 97 81 13 0 0 0 0 0 0 0 0 0 0 0 0 19 48 71 74 68 100 100 100 100 100 100 100 100 100 100 100 100 100 100 100 100 100 97 97 97 87 94 94 94 94 100 100 97
97 68 23 0 0 0 0 0 0 3 0 0 0 0 0 0 23 61 81 71 81 100 100 100 100 100 100 100 100 100 100 100 100 100 100 97 97 94 94 97 94 87 87 87 90 94 94 94 94
68 13 0 0 0 0 0 3 3 3 0 0 0 0 0 0 35 71 81 90 97 100 100 100 100 100 100 100 100 100 100 100 100 97 97 97 97 94 90 90 90 87 90 90 84 90 94 90 94
16 3 0 0 0 0 0 0 3 3 10 0 0 0 0 0 16 42 65 84 100 100 97 100 100 100 100 100 100 100 100 100 100 100 97 97 97 97 90 87 84 81 84 81 90 90 97 97 97
16 0 0 0 0 0 0 0 3 0 0 3 3 0 0 0 3 10 26 45 55 71 74 87 94 100 100 100 100 100 100 100 100 100 100 97 94 94 90 84 81 77 71 81 81 77 90 90 94
3 0 0 0 0 0 0 0 3 0 0 0 6 0 3 0 0 3 13 19 19 19 23 32 45 71 87 100 100 100 100 100 100 100 100 100 100 100 97 90 84 74 65 58 77 77 84 90 90
0 0 0 0 0 0 0 0 0 0 0 0 0 0 0 0 0 0 6 6 13 16 16 16 19 23 35 55 90 97 100 100 97 100 100 100 97 94 94 97 87 81 77 84 84 81 84 87 87
0 0 0 0 0 0 0 0 3 0 0 0 0 0 0 0 0 0 0 0 0 0 6 6 6 6 10 26 45 71 81 77 87 84 97 100 90 77 87 84 100 100 97 87 87 90 90 84 29
0 0 0 0 0 0 0 0 0 0 0 0 0 0 0 0 0 0 0 0 0 0 0 0 3 0 0 3 10 26 42 55 58 68 68 61 55 32 58 35 84 94 90 71 74 77 42 10 0
0 0 3 0 0 0 0 0 0 0 0 0 0 0 0 0 0 0 0 0 0 0 0 0 0 0 0 0 0 6 16 32 42 39 42 35 26 19 10 3 13 42 39 3 3 3 3 0 0
0 0 0 0 0 0 0 0 0 0 0 0 0 0 0 0 0 0 0 0 0 0 0 0 0 0 0 0 0 0 0 10 16 19 23 23 23 10 6 3 6 3 6 3 3 0 0 0 0
3 0 0 0 0 0 0 0 0 0 0 0 0 0 0 0 0 0 0 0 0 0 0 0 0 0 0 0 0 0 0 3 10 10 6 13 13 10 6 3 6 3 0 3 0 0 0 0 0
0 0 0 0 0 0 0 0 0 0 0 0 0 0 0 0 0 0 0 0 0 0 0 0 0 0 0 0 0 0 0 0 3 10 6 3 0 3 6 0 0 0 0 0 0 0 0 0 0
0 0 0 0 0 0 0 0 0 0 0 0 0 0 0 0 0 0 0 0 0 0 0 0 0 0 0 0 0 0 0 0 0 3 3 6 3 3 3 6 3 0 0 0 0 0 0 0 0
0 0 0 0 0 0 0 0 0 0 0 0 0 0 0 0 0 0 0 0 0 0 0 0 0 0 0 0 0 0 0 0 0 3 3 3 0 3 0 3 0 0 0 0 0 0 0 0 0
0 0 0 0 0 0 0 0 0 0 0 0 0 0 0 0 0 0 0 0 0 0 0 0 0 0 0 0 0 0 0 0 0 0 0 0 6 6 0 0 0 3 3 0 0 0 0 0 0
0 0 0 0 0 0 0 0 0 0 0 0 0 0 0 0 0 0 0 0 0 0 0 0 0 0 0 0 0 0 0 0 0 0 0 3 6 3 0 0 0 0 3 3 0 0 0 0 0
0 0 0 0 0 0 0 0 0 0 0 0 0 0 0 0 0 0 0 0 0 0 0 0 0 0 0 0 0 0 0 0 0 0 0 0 0 0 0 0 0 0 0 0 0 0 0 0 0
0 0 0 0 0 0 0 0 0 0 0 0 0 0 0 0 0 0 0 0 0 0 0 0 0 0 0 0 0 0 0 0 0 0 0 0 0 3 0 0 0 0 0 0 0 0 0 0 0
0 0 0 0 0 0 0 0 0 0 0 0 0 0 0 0 0 0 0 0 0 0 0 0 0 0 0 0 0 0 0 0 0 0 0 0 0 3 3 0 0 0 0 0 0 0 0 0 0
0 0 0 0 0 0 0 0 0 0 0 0 0 0 0 0 0 0 0 0 0 0 0 0 0 0 0 0 0 0 0 0 0 0 0 0 0 0 3 3 0 3 0 0 0 0 0 0 0
0 0 0 0 0 0 0 0 0 0 0 0 0 0 0 0 0 0 0 0 0 0 0 0 0 0 0 0 0 0 0 0 0 0 0 0 0 0 3 6 6 0 0 0 0 0 0 0 0
0 0 0 0 0 0 0 0 0 0 0 0 0 0 0 0 0 0 0 0 0 0 0 0 0 0 0 0 0 0 0 0 0 0 0 0 0 0 0 3 6 3 0 0 0 0 0 0 0
0 0 0 0 0 0 0 0 0 0 0 0 0 0 0 0 0 0 0 0 0 0 0 0 0 0 0 0 0 0 0 0 0 0 0 0 0 0 0 0 3 3 0 0 0 0 0 0 0
0 0 0 0 0 0 0 0 0 0 0 0 0 0 0 0 0 0 0 0 0 0 0 0 0 0 0 0 0 0 0 0 0 0 0 0 0 0 0 0 0 3 0 0 0 0 0 0 0
0 0 0 0 0 0 0 0 0 0 0 0 0 0 0 0 0 0 0 0 0 0 0 0 0 0 0 0 0 0 0 0 0 0 0 0 0 0 0 0 0 0 0 0 0 0 0 0 0
0 0 0 0 0 0 0 0 0 0 0 0 0 0 0 0 0 0 0 0 0 0 0 0 0 0 0 0 0 0 0 0 0 0 0 0 0 0 0 0 0 0 0 0 0 0 0 0 0
0 0 0 0 0 0 0 0 0 0 0 0 0 0 0 0 0 0 0 0 0 0 0 0 0 0 0 0 0 0 0 0 0 0 0 0 0 0 0 0 0 0 0 0 0 0 0 0 0

GEFSSGP_con_cape1000_060.txt.gz
Probability
100 100 94 52 3 0 0 0 0 0 0 0 0 0 0 0 0 0 0 13 19 68 90 100 100 100 100 100 100 100 100 100 100 100 100 100 97 97 100 100 100 97 100 100 100 100 100 97 97
100 97 68 3 0 0 0 0 0 0 0 0 0 0 0 13 23 13 19 39 48 87 100 100 100 100 100 100 100 100 100 100 100 100 100 100 100 100 100 100 97 94 97 94 97 97 97 97 97
97 84 23 0 0 0 0 0 0 0 0 0 0 0 0 10 16 23 29 48 74 90 100 100 100 100 100 100 100 100 100 100 100 100 100 100 100 100 100 100 97 90 94 94 90 100 97 97 97
71 26 0 0 0 0 0 0 0 0 0 0 0 0 0 3 10 19 45 68 74 94 100 100 100 100 100 100 100 100 100 100 100 100 100 100 100 100 100 97 97 97 94 90 84 94 90 97 97
19 0 0 0 0 0 0 0 0 0 0 0 0 0 0 0 13 23 29 55 65 84 90 100 100 100 97 97 100 100 100 100 100 100 100 100 97 97 97 97 94 94 87 90 90 94 94 94 97
0 0 0 0 0 0 0 0 0 0 0 0 0 0 0 0 6 13 35 35 39 48 68 74 94 100 100 97 100 100 100 100 100 100 100 97 97 97 97 94 90 90 87 94 90 97 90 97 94
0 0 0 0 0 0 0 0 0 0 3 3 0 0 0 0 0 3 13 10 13 23 26 26 32 39 84 97 100 100 100 100 100 100 100 100 100 100 100 90 94 87 90 90 87 90 90 90 94
0 0 0 0 0 0 0 0 0 0 0 0 0 0 0 0 0 3 3 3 3 6 10 10 10 16 13 23 74 97 97 97 97 100 100 100 100 100 100 97 94 94 87 87 87 87 84 90 90
0 0 0 0 0 0 0 0 0 0 0 0 0 0 0 0 0 0 0 0 0 0 0 0 3 3 6 6 16 45 68 81 84 87 94 100 100 100 100 100 97 94 94 90 87 84 87 84 90
0 0 0 0 0 0 0 0 0 0 0 0 0 0 0 0 0 0 0 0 0 0 0 0 0 0 0 6 6 13 13 23 32 48 65 68 68 68 87 87 100 100 100 97 90 90 90 77 39
0 0 0 0 0 0 0 0 0 0 0 0 0 0 0 0 0 0 0 0 0 0 0 0 0 0 0 0 0 0 6 10 16 26 29 26 42 48 61 61 71 81 97 94 84 90 74 29 10
0 0 0 0 0 0 0 0 0 0 0 0 0 0 0 0 0 0 0 0 0 0 0 0 0 0 0 0 0 0 0 0 3 13 16 19 13 13 13 16 10 26 35 55 23 19 10 0 0
0 0 0 0 0 0 0 0 0 0 0 0 0 0 0 0 0 0 0 0 0 0 0 0 0 0 0 0 0 0 0 0 0 0 3 6 6 6 6 10 3 3 13 16 13 0 0 0 0
0 0 0 0 0 0 0 0 0 0 0 0 0 0 0 0 0 0 0 0 0 0 0 0 0 0 0 0 0 0 0 0 0 0 0 0 3 3 6 3 3 3 3 6 6 0 0 0 0
0 0 0 0 0 0 0 0 0 0 0 0 0 0 0 0 0 0 0 0 0 0 0 0 0 0 0 0 0 0 0 0 0 0 0 0 0 3 3 3 3 0 0 3 3 0 0 0 0
0 0 0 0 0 0 0 0 0 0 0 0 0 0 0 0 0 0 0 0 0 0 0 0 0 0 0 0 0 0 0 0 0 0 0 0 0 0 0 0 0 0 0 0 0 0 0 0 0
0 0 0 0 0 0 0 0 0 0 0 0 0 0 0 0 0 0 0 0 0 0 0 0 0 0 0 0 0 0 0 0 0 0 0 0 0 0 0 0 3 0 0 0 0 3 0 0 0
0 0 0 0 0 0 0 0 0 0 0 0 0 0 0 0 0 0 0 0 0 0 0 0 0 0 0 0 0 0 0 0 0 0 0 0 0 0 0 3 3 0 0 0 0 0 0 0 0
0 0 0 0 0 0 0 0 0 0 0 0 0 0 0 0 0 0 0 0 0 0 0 0 0 0 0 0 0 0 0 0 0 0 0 0 0 0 0 3 3 0 0 0 0 0 0 0 0
0 0 0 0 0 0 0 0 0 0 0 0 0 0 0 0 0 0 0 0 0 0 0 0 0 0 0 0 0 0 0 0 0 0 0 0 0 0 3 0 3 0 0 0 0 0 0 0 0
0 0 0 0 0 0 0 0 0 0 0 0 0 0 0 0 0 0 0 0 0 0 0 0 0 0 0 0 0 0 0 0 0 0 0 0 0 0 0 3 0 0 0 0 0 0 0 0 0
0 0 0 0 0 0 0 0 0 0 0 0 0 0 0 0 0 0 0 0 0 0 0 0 0 0 0 0 0 0 0 0 0 0 0 0 0 0 0 0 0 0 0 0 0 0 0 0 0
0 0 0 0 0 0 0 0 0 0 0 0 0 0 0 0 0 0 0 0 0 0 0 0 0 0 0 0 0 0 0 0 0 0 0 0 0 0 0 0 0 0 0 0 0 0 0 0 0
0 0 0 0 0 0 0 0 0 0 0 0 0 0 0 0 0 0 0 0 0 0 0 0 0 0 0 0 0 0 0 0 0 0 0 0 0 0 0 3 3 0 0 0 0 0 0 0 0
0 0 0 0 0 0 0 0 0 0 0 0 0 0 0 0 0 0 0 0 0 0 0 0 0 0 0 0 0 0 0 0 0 0 0 0 0 0 0 3 3 3 6 3 0 0 0 0 0
0 0 0 0 0 0 0 0 0 0 0 0 0 0 0 0 0 0 0 0 0 0 0 0 0 0 0 0 0 0 0 0 0 0 0 0 0 0 0 3 3 0 0 6 3 0 0 0 0
0 0 0 0 0 0 0 0 0 0 0 0 0 0 0 0 0 0 0 0 0 0 0 0 0 0 0 0 0 0 0 0 0 0 0 0 0 0 0 0 0 0 0 3 3 3 0 0 0
0 0 0 0 0 0 0 0 0 0 0 0 0 0 0 0 0 0 0 0 0 0 0 0 0 0 0 0 0 0 0 0 0 0 0 0 0 0 0 0 0 0 0 0 3 3 0 0 0
0 0 0 0 0 0 0 0 0 0 0 0 0 0 0 0 0 0 0 0 0 0 0 0 0 0 0 0 0 0 0 0 0 0 0 0 0 0 0 0 0 0 0 0 3 0 0 0 0
0 0 0 0 0 0 0 0 0 0 0 0 0 0 0 0 0 0 0 0 0 0 0 0 0 0 0 0 0 0 0 0 0 0 0 0 0 0 0 0 0 0 0 0 0 0 0 0 0

GEFSSGP_con_cape1000_066.txt.gz
Probability
97 97 97 97 74 0 0 0 0 0 0 0 0 0 0 0 0 6 77 26 10 26 52 90 100 100 100 100 100 100 100 100 100 100 100 97 97 97 97 100 100 100 100 100 100 100 97 94 90
97 97 97 71 6 0 0 0 0 0 0 0 0 0 0 0 0 13 48 58 29 35 55 68 100 100 100 100 100 100 100 100 100 100 100 100 97 97 100 97 97 97 100 97 94 97 97 94 90
97 97 81 32 0 0 0 0 0 0 0 0 0 0 0 3 3 16 45 48 48 45 65 90 100 100 100 100 100 100 100 100 100 100 100 100 100 100 100 97 97 94 100 94 90 90 97 97 90
97 84 39 3 0 0 0 0 3 0 0 0 0 0 10 6 10 19 42 39 32 35 42 71 100 97 94 94 97 100 100 100 100 100 100 100 100 100 100 100 97 94 87 90 87 87 90 94 90
90 42 13 0 0 0 6 6 3 0 0 0 0 0 3 10 23 29 39 35 29 32 35 45 77 87 90 87 90 90 94 97 90 94 97 100 100 100 97 97 90 90 94 94 90 94 90 84 94
90 23 0 0 0 0 6 10 0 0 0 0 0 0 6 10 16 26 42 35 26 13 16 23 39 48 61 68 84 81 84 90 87 90 97 100 100 97 97 97 90 94 90 90 94 97 90 87 81
84 16 0 0 0 0 0 3 0 0 0 3 0 3 3 10 16 19 16 16 6 6 10 16 13 6 26 42 48 58 68 74 84 87 87 90 97 100 100 100 90 90 87 87 87 87 90 90 87
87 29 0 0 0 0 3 3 3 0 6 0 0 0 0 3 13 6 6 6 3 6 3 3 0 0 6 16 19 29 45 58 55 52 71 77 81 87 94 94 100 90 90 81 87 87 90 87 87
52 3 0 3 0 3 3 0 3 0 0 0 0 0 0 3 3 3 3 0 3 3 3 0 0 0 0 3 0 10 19 26 26 35 52 61 55 48 77 58 94 90 87 87 87 84 87 90 84
55 0 0 29 10 16 6 0 0 3 0 0 0 0 0 0 0 0 0 0 0 0 0 0 0 0 0 0 0 6 6 13 23 26 35 48 52 61 35 39 68 84 90 87 90 81 77 68 58
65 29 32 16 10 3 3 0 0 0 0 0 0 0 0 0 0 0 0 0 0 0 0 0 3 0 0 3 3 6 10 3 13 13 19 42 55 55 55 52 55 71 74 87 90 81 74 58 32
48 35 19 13 3 0 3 0 0 0 0 0 0 0 0 0 0 0 0 0 0 0 0 0 0 3 3 3 3 6 6 6 6 16 3 16 32 48 52 65 45 61 84 87 90 74 55 42 19
35 26 13 10 3 3 3 0 0 0 0 0 0 0 0 0 0 0 0 0 0 0 0 0 0 0 0 0 3 0 3 3 3 6 3 3 16 32 32 42 55 52 61 84 90 65 35 35 19
32 19 10 3 3 0 0 0 0 0 0 0 0 0 0 0 0 0 0 0 0 0 0 0 0 0 0 0 0 0 0 3 3 3 0 0 3 13 26 32 39 45 61 68 74 65 61 29 35
13 10 0 0 0 0 0 0 0 0 0 0 0 0 0 0 0 0 0 0 0 0 0 0 0 0 0 0 0 0 0 0 0 3 3 0 3 0 3 16 19 29 48 61 61 45 65 45 23
6 3 0 0 0 0 0 0 0 0 0 0 0 0 0 0 0 0 0 0 0 0 0 0 0 0 0 0 0 0 0 0 0 0 0 0 0 0 3 3 16 29 39 52 74 65 74 52 35
0 0 0 0 0 0 0 0 0 0 0 0 0 0 0 0 0 0 0 0 0 0 0 0 0 0 0 0 0 0 0 0 0 0 0 0 0 3 3 0 6 10 29 35 39 45 48 55 35
0 0 0 0 0 0 0 0 0 0 0 0 0 0 0 0 0 0 0 0 0 0 0 0 0 0 0 0 0 0 0 0 0 0 0 0 0 0 3 3 3 3 23 29 35 35 45 48 42
0 0 0 0 0 0 0 0 0 0 0 0 0 0 0 0 0 0 0 0 0 0 0 0 0 0 0 0 0 0 0 0 0 0 0 0 0 0 3 3 3 13 16 23 29 39 39 32 23
0 0 0 0 0 0 0 0 0 0 0 0 0 0 0 0 0 0 0 0 0 0 0 0 0 0 0 0 0 0 0 0 0 0 0 0 0 0 0 3 6 16 23 19 26 32 32 23 26
0 0 0 0 0 0 0 0 0 0 0 0 0 0 0 0 0 0 0 0 0 0 0 0 0 0 0 0 0 0 0 0 0 0 0 0 0 0 0 0 3 13 23 16 23 29 29 16 23
0 0 0 0 0 0 0 0 0 0 0 0 0 0 0 0 0 0 0 0 0 0 0 0 0 0 0 0 0 0 0 0 0 0 0 0 0 0 0 0 3 6 13 19 19 23 26 26 19
0 0 0 0 0 0 0 0 0 0 0 0 0 0 0 0 0 0 0 0 0 0 0 0 0 0 0 0 0 0 0 0 0 0 0 0 0 0 0 3 6 6 10 16 23 19 26 26 32
0 0 0 0 0 0 0 0 0 0 0 0 0 0 0 0 0 0 0 0 0 0 0 0 0 0 0 0 0 0 0 0 0 0 0 0 3 0 3 3 3 0 6 13 23 23 26 29 23
0 0 0 0 0 0 0 0 0 0 0 0 0 0 0 0 0 0 0 0 0 0 0 0 0 0 0 0 0 0 0 0 0 0 0 0 0 0 0 0 3 3 10 10 19 23 23 23 26
0 0 0 0 0 0 0 0 0 0 0 0 0 0 0 0 0 0 0 0 0 0 0 0 0 0 0 0 0 0 0 0 0 0 0 0 0 0 0 0 0 6 10 13 13 23 19 19 23
0 0 0 0 0 0 0 0 0 0 0 0 0 0 0 0 0 0 0 0 0 0 0 0 0 0 0 0 0 0 0 0 0 0 0 0 0 0 0 0 0 0 3 6 10 19 16 19 23
0 0 0 0 0 0 0 0 0 0 0 0 0 0 0 0 0 0 0 0 0 0 0 0 0 0 0 0 0 0 0 0 0 0 0 0 0 0 0 0 0 0 0 3 6 10 16 16 23
0 0 0 0 0 0 0 0 0 0 0 0 0 0 0 0 0 0 0 0 0 0 0 0 0 0 0 0 0 0 0 0 0 0 0 0 0 0 0 0 0 3 3 3 6 3 10 10 13
0 0 0 0 0 0 0 0 0 0 0 0 0 0 0 0 0 0 0 0 0 0 0 0 0 0 0 0 0 0 0 0 0 0 0 0 0 0 0 0 0 0 0 0 0 0 0 3 3

GEFSSGP_con_cape1000_072.txt.gz
Probability
100 97 97 97 97 84 0 0 0 0 0 0 0 0 0 3 3 16 39 39 55 97 97 100 100 100 100 100 97 94 94 97 97 100 100 97 94 97 97 97 97 97 97 90 97 100 97 90 90
94 94 97 97 77 3 0 0 0 0 0 0 0 0 3 10 6 16 32 45 45 61 97 97 100 100 97 90 90 97 94 94 94 94 94 94 97 97 94 97 97 97 97 87 81 87 90 90 90
97 97 97 97 23 0 0 0 3 0 0 0 0 6 10 6 3 13 35 26 42 77 81 87 90 90 87 87 84 81 77 90 90 94 90 90 94 97 97 97 97 90 90 90 87 74 87 87 90
97 97 97 81 0 0 0 0 0 0 0 0 0 3 3 10 13 16 23 26 42 58 77 81 87 87 74 74 58 61 65 68 68 68 84 81 87 90 97 94 94 97 94 87 87 84 77 77 84
97 100 81 10 0 3 6 3 0 3 0 0 0 10 6 13 32 29 32 19 13 32 32 39 61 58 52 55 55 58 55 68 74 71 71 77 81 84 90 94 90 94 94 87 90 90 87 74 84
100 100 48 0 0 0 3 0 0 0 0 0 0 10 3 10 23 26 32 19 10 13 19 26 45 48 42 32 35 32 45 52 58 65 65 68 68 71 77 84 94 87 87 90 94 97 94 87 87
100 97 19 0 3 6 0 0 0 0 0 0 0 10 0 3 23 26 19 16 6 10 10 13 13 23 35 35 39 29 26 32 39 48 48 61 65 61 65 71 81 84 90 87 90 94 87 94 94
100 94 13 0 3 3 0 0 0 0 0 0 0 0 3 3 13 16 13 10 0 0 0 0 0 3 10 19 26 23 26 23 26 35 48 42 45 52 52 65 74 81 81 87 87 90 87 90 90
87 81 10 3 13 13 3 0 3 3 0 0 0 0 0 3 6 6 13 6 3 0 0 0 0 0 0 0 3 6 19 26 32 26 42 42 39 32 52 52 68 71 71 71 81 77 90 90 94
81 68 13 13 10 10 3 0 0 0 0 0 0 0 0 0 0 0 3 3 3 0 0 0 3 6 0 0 0 10 10 10 6 19 26 29 29 32 39 48 55 58 61 68 74 74 74 77 61
42 29 13 13 6 10 0 0 0 0 0 0 0 0 0 0 0 0 0 0 0 3 0 0 0 3 3 3 3 3 6 6 6 10 23 23 16 26 26 29 45 45 45 32 45 65 48 35 19
23 26 6 6 0 0 0 0 0 0 0 0 0 0 0 0 0 0 0 0 0 0 0 0 0 0 0 3 3 0 3 3 6 10 13 13 13 19 26 29 29 23 23 26 29 32 29 29 13
23 23 13 3 0 0 0 0 0 0 0 0 0 0 0 0 0 0 0 0 0 0 0 0 0 0 0 0 0 0 3 3 0 3 0 10 10 3 6 19 16 13 19 10 16 16 13 16 6
32 26 16 0 0 0 0 0 0 0 0 0 0 0 0 0 0 0 0 0 0 0 0 0 0 0 0 0 0 0 0 3 0 3 0 3 3 10 3 0 10 10 13 16 13 10 6 3 6
26 13 0 0 0 0 0 0 0 0 0 0 0 0 0 0 0 0 0 0 0 0 0 0 0 0 0 0 0 0 0 0 0 0 0 0 0 0 0 0 3 10 3 13 3 6 10 3 3
10 0 0 0 0 0 0 0 0 0 0 0 0 0 0 0 0 0 0 0 0 0 0 0 0 0 0 0 0 0 0 0 0 0 0 0 0 0 0 0 0 6 3 0 0 0 3 0 3
3 0 0 0 0 0 0 0 0 0 0 0 0 0 0 0 0 0 0 0 0 0 0 0 0 0 0 0 0 0 0 0 0 0 0 0 0 0 0 0 0 0 0 0 0 0 3 3 3
0 0 0 0 0 0 0 0 0 0 0 0 0 0 0 0 0 0 0 0 0 0 0 0 0 0 0 0 0 0 0 0 0 0 0 0 0 0 0 0 0 0 3 3 3 0 0 3 3
0 0 0 0 0 0 0 0 0 0 0 0 0 0 0 0 0 0 0 0 0 0 0 0 0 0 0 0 0 0 0 0 0 0 0 0 0 0 0 0 0 0 0 3 3 3 6 3 3
0 0 0 0 0 0 0 0 0 0 0 0 0 0 0 0 0 0 0 0 0 0 0 0 0 0 0 0 0 0 0 0 0 0 0 0 0 0 0 0 0 0 0 0 0 3 3 0 3
0 0 0 0 0 0 0 0 0 0 0 0 0 0 0 0 0 0 0 0 0 0 0 0 0 0 0 0 0 0 0 0 0 0 0 0 0 0 0 0 0 0 0 0 0 3 6 3 3
0 0 0 0 0 0 0 0 0 0 0 0 0 0 0 0 0 0 0 0 0 0 0 0 0 0 0 0 0 0 0 0 0 0 0 0 0 0 0 0 0 0 0 0 0 0 0 0 0
0 0 0 0 0 0 0 0 0 0 0 0 0 0 0 0 0 0 0 0 0 0 0 0 0 0 0 0 0 0 0 0 0 0 0 0 0 0 0 0 0 0 0 0 0 0 0 0 0
0 0 0 0 0 0 0 0 0 0 0 0 0 0 0 0 0 0 0 0 0 0 0 0 0 0 0 0 0 0 0 0 0 0 0 0 0 0 0 0 0 0 0 0 0 6 6 3 0
0 0 0 0 0 0 0 0 0 0 0 0 0 0 0 0 0 0 0 0 0 0 0 0 0 0 0 0 0 0 0 0 0 0 0 0 0 0 0 0 0 0 0 0 0 0 3 0 0
0 0 0 0 0 0 0 0 0 0 0 0 0 0 0 0 0 0 0 0 0 0 0 0 0 0 0 0 0 0 0 0 0 0 0 0 0 0 0 0 0 0 0 0 3 0 0 3 3
0 0 0 0 0 0 0 0 0 0 0 0 0 0 0 0 0 0 0 0 0 0 0 0 0 0 0 0 0 0 0 0 0 0 0 0 0 0 0 0 0 0 0 0 3 3 3 0 0
0 0 0 0 0 0 0 0 0 0 0 0 0 0 0 0 0 0 0 0 0 0 0 0 0 0 0 0 0 0 0 0 0 0 0 0 0 0 0 0 0 0 0 3 3 3 0 0 0
0 0 0 0 0 0 0 0 0 0 0 0 0 0 0 0 0 0 0 0 0 0 0 0 0 0 0 0 0 0 0 0 0 0 0 0 0 0 0 0 0 0 0 0 3 3 3 0 0
0 0 0 0 0 0 0 0 0 0 0 0 0 0 0 0 0 0 0 0 0 0 0 0 0 0 0 0 0 0 0 0 0 0 0 0 0 0 0 0 0 0 0 0 0 0 0 0 0

GEFSSGP_con_cape1000_078.txt.gz
Probability
94 90 77 55 29 0 0 0 0 0 0 0 0 0 0 0 0 0 0 26 58 84 97 97 100 100 100 100 100 97 97 97 97 97 100 97 94 97 97 97 100 97 97 84 81 84 87 90 90
97 90 77 32 3 0 0 0 0 0 0 0 0 0 0 0 3 0 3 45 58 74 90 100 100 100 100 100 100 100 97 94 97 94 97 97 97 97 100 97 97 94 90 81 81 81 84 87 90
94 84 68 13 0 0 0 0 0 0 0 0 3 0 0 0 3 3 10 35 52 61 84 94 90 94 100 100 100 100 97 94 94 97 97 94 90 94 94 97 94 90 87 84 77 77 74 74 84
90 71 13 0 0 0 0 0 0 0 3 0 0 0 0 0 0 3 19 26 35 52 71 81 84 84 84 84 81 81 87 90 90 81 84 94 87 87 87 90 84 94 94 87 87 81 81 71 77
84 23 3 0 0 0 0 0 0 0 0 0 0 0 0 0 3 3 13 16 19 23 48 65 74 77 71 65 71 77 77 81 81 84 90 94 97 90 87 81 74 77 84 87 90 84 84 77 74
48 3 0 0 0 0 0 0 0 0 0 0 0 0 0 0 6 3 0 6 3 16 29 42 52 58 65 55 61 61 65 71 71 81 81 87 81 87 77 81 74 77 81 84 87 87 81 84 84
35 0 0 0 0 0 0 0 0 0 0 0 0 0 0 0 3 3 3 0 0 6 10 13 29 29 35 35 39 42 45 48 61 71 77 74 84 74 74 81 77 81 81 87 81 87 87 87 90
39 3 0 0 0 0 0 0 0 0 0 0 0 0 0 0 0 0 3 0 0 0 0 3 6 6 13 13 19 29 29 35 39 45 55 61 71 61 65 68 74 74 77 81 84 84 84 84 87
19 0 0 0 0 0 0 0 0 0 0 0 0 0 0 3 3 0 0 0 0 0 0 0 0 0 0 0 3 6 10 19 23 16 29 35 29 32 39 45 58 61 68 71 68 77 81 87 87
10 0 0 0 0 0 0 0 0 0 0 0 0 0 3 3 3 3 0 0 0 0 0 0 0 0 0 0 0 3 3 3 3 3 6 6 6 10 13 16 39 55 61 61 65 65 74 74 61
0 0 0 0 0 0 0 0 0 0 0 0 0 0 0 3 3 3 3 3 0 0 0 0 0 0 0 0 0 0 0 0 0 0 0 0 0 0 0 3 13 23 39 39 42 45 42 29 23
0 6 3 0 0 0 0 0 0 0 0 0 0 0 0 0 0 0 0 0 3 3 0 0 0 0 0 0 0 0 0 0 0 0 0 0 0 0 0 0 0 3 6 10 10 6 10 10 6
0 0 3 3 0 0 0 0 0 0 0 0 0 0 0 0 0 0 0 0 0 0 0 0 0 0 0 0 0 0 0 0 0 0 0 0 0 0 0 0 0 0 3 3 6 6 6 6 3
3 0 0 0 0 0 0 0 0 0 0 0 0 0 0 0 0 0 0 0 0 0 0 0 0 0 0 0 0 0 0 0 0 0 0 0 0 0 0 0 0 0 0 0 3 3 3 3 0
3 0 0 0 0 0 0 0 0 0 0 0 0 0 0 0 0 0 0 0 0 0 0 0 0 0 0 0 0 0 0 0 0 0 0 0 0 0 0 0 0 0 0 0 0 0 0 0 0
0 0 0 0 0 0 0 0 0 0 0 0 0 0 0 0 0 0 0 0 0 0 0 0 0 0 0 0 0 0 0 0 0 0 0 0 0 0 0 0 0 0 0 0 0 0 0 0 0
0 0 0 0 0 0 0 0 0 0 0 0 0 0 0 0 0 0 0 0 0 0 0 0 0 0 0 0 0 0 0 0 0 0 0 0 0 0 0 0 0 0 0 0 0 0 0 0 0
0 0 0 0 0 0 0 0 0 0 0 0 0 0 0 0 0 0 0 0 0 0 0 0 0 0 0 0 0 0 0 0 0 0 0 0 0 0 0 0 0 0 0 0 0 0 0 0 0
0 0 0 0 0 0 0 0 0 0 0 0 0 0 0 0 0 0 0 0 0 0 0 0 0 0 0 0 0 0 0 0 0 0 0 0 0 0 0 0 0 0 0 0 0 0 0 0 0
0 0 0 0 0 0 0 0 0 0 0 0 0 0 0 0 0 0 0 0 0 0 0 0 0 0 0 0 0 0 0 0 0 0 0 0 0 0 0 0 0 0 0 0 0 0 0 0 0
0 0 0 0 0 0 0 0 0 0 0 0 0 0 0 0 0 0 0 0 0 0 0 0 0 0 0 0 0 0 0 0 0 0 0 0 0 0 0 0 0 0 0 0 0 0 0 0 0
0 0 0 0 0 0 0 0 0 0 0 0 0 0 0 0 0 0 0 0 0 0 0 0 0 0 0 0 0 0 0 0 0 0 0 0 0 0 0 0 0 0 0 0 0 0 0 0 0
0 0 0 0 0 0 0 0 0 0 0 0 0 0 0 0 0 0 0 0 0 0 0 0 0 0 0 0 0 0 0 0 0 0 0 0 0 0 0 0 0 0 0 0 0 0 0 0 0
0 0 0 0 0 0 0 0 0 0 0 0 0 0 0 0 0 0 0 0 0 0 0 0 0 0 0 0 0 0 0 0 0 0 0 0 0 0 0 0 0 0 0 0 0 0 0 0 0
0 0 0 0 0 0 0 0 0 0 0 0 0 0 0 0 0 0 0 0 0 0 0 0 0 0 0 0 0 0 0 0 0 0 0 0 0 0 0 0 0 0 0 0 0 0 0 0 0
0 0 0 0 0 0 0 0 0 0 0 0 0 0 0 0 0 0 0 0 0 0 0 0 0 0 0 0 0 0 0 0 0 0 0 0 0 0 0 0 0 0 0 0 0 0 0 0 0
0 0 0 0 0 0 0 0 0 0 0 0 0 0 0 0 0 0 0 0 0 0 0 0 0 0 0 0 0 0 0 0 0 0 0 0 0 0 0 0 0 0 0 0 0 0 0 0 0
0 0 0 0 0 0 0 0 0 0 0 0 0 0 0 0 0 0 0 0 0 0 0 0 0 0 0 0 0 0 0 0 0 0 0 0 0 0 0 0 0 0 0 0 0 0 0 0 0
0 0 0 0 0 0 0 0 0 0 0 0 0 0 0 0 0 0 0 0 0 0 0 0 0 0 0 0 0 0 0 0 0 0 0 0 0 0 0 0 0 0 0 0 0 0 0 0 0
0 0 0 0 0 0 0 0 0 0 0 0 0 0 0 0 0 0 0 0 0 0 0 0 0 0 0 0 0 0 0 0 0 0 0 0 0 0 0 0 0 0 0 0 0 0 0 0 0

GEFSSGP_con_cape1000_084.txt.gz
Probability
81 65 32 16 3 0 0 0 0 0 0 0 0 0 0 0 0 0 0 3 13 39 71 87 84 90 87 94 94 94 90 97 97 97 100 100 100 97 97 97 97 97 94 97 87 90 87 87 84
68 52 23 3 0 0 0 0 0 0 0 0 0 0 0 0 0 0 0 16 23 48 61 68 84 84 84 84 94 94 94 87 94 97 94 100 100 100 100 100 100 97 94 90 81 84 84 87 87
68 48 10 0 0 0 0 0 0 0 0 0 0 0 0 0 0 0 0 16 19 32 52 55 65 71 77 84 84 84 90 87 90 94 90 90 94 97 97 97 100 97 94 90 90 84 81 84 81
58 19 0 0 0 0 0 0 0 0 0 0 0 0 0 0 0 0 13 23 26 29 39 45 58 48 52 65 74 74 81 77 84 90 94 94 94 87 94 90 94 97 97 94 94 90 81 77 77
29 0 0 0 0 0 0 0 0 0 0 0 0 0 0 0 0 3 3 10 10 16 23 32 45 42 45 48 55 61 65 61 74 65 71 74 77 84 84 90 90 94 90 94 94 87 90 87 84
10 0 0 0 0 0 0 0 0 0 0 0 0 0 0 0 0 6 0 0 0 6 10 13 23 26 26 32 32 32 32 35 48 58 61 58 58 71 77 77 77 84 81 74 84 90 90 90 87
0 0 0 0 0 0 0 0 0 0 0 0 0 0 0 0 0 3 0 0 0 3 0 0 0 3 16 19 19 16 23 19 19 29 39 48 52 55 52 58 65 65 77 71 81 84 84 84 90
0 0 0 0 0 0 0 0 0 0 0 0 0 0 0 0 0 0 0 0 0 0 0 0 0 0 0 0 0 13 23 32 26 23 26 26 26 19 39 35 52 52 61 74 65 74 71 77 77
0 0 0 0 0 0 0 0 0 0 0 0 0 0 0 0 0 0 0 0 0 0 0 0 0 0 0 0 0 0 0 3 0 3 10 13 3 6 6 16 32 42 35 45 58 65 58 61 61
0 0 0 0 0 0 0 0 0 0 0 0 0 0 0 0 0 0 0 0 0 0 0 0 0 0 0 0 0 0 0 0 0 0 0 0 0 0 3 6 23 23 35 39 39 45 45 45 29
3 0 0 0 0 0 0 0 0 0 0 0 0 0 0 0 0 0 0 0 0 0 0 0 0 0 0 0 0 0 0 0 0 0 0 0 0 0 0 0 0 0 0 10 16 26 23 23 16
3 3 0 3 0 0 0 0 0 0 0 0 0 0 0 0 0 0 0 0 0 0 0 0 0 0 0 0 0 0 0 0 0 0 0 0 0 0 0 0 0 0 0 0 6 6 10 10 6
0 3 3 3 3 3 0 3 0 0 0 0 0 0 0 0 0 0 0 0 0 0 0 0 0 0 0 0 0 0 0 0 0 0 0 0 0 0 0 0 0 0 0 0 0 0 3 3 3
0 3 3 3 0 0 0 0 0 0 0 0 0 0 0 0 0 0 0 0 0 0 0 0 0 0 0 0 0 0 0 0 0 0 0 0 0 0 0 0 0 0 0 0 0 0 0 0 3
3 3 0 0 0 0 0 0 0 0 0 0 0 0 0 0 0 0 0 0 0 0 0 0 0 0 0 0 0 0 0 0 0 0 0 0 0 0 0 0 0 0 0 0 0 0 0 0 0
3 0 0 0 0 0 0 0 0 0 0 0 0 0 0 0 0 0 0 0 0 0 0 0 0 0 0 0 0 0 0 0 0 0 0 0 0 0 0 0 0 0 0 0 0 0 0 0 0
0 0 0 0 0 0 0 0 0 0 0 0 0 0 0 0 0 0 0 0 0 0 0 0 0 0 0 0 0 0 0 0 0 0 0 0 0 0 0 0 0 0 0 0 0 0 0 0 0
0 0 0 0 0 0 0 0 0 0 0 0 0 0 0 0 0 0 0 0 0 0 0 0 0 0 0 0 0 0 0 0 0 0 0 0 0 0 0 0 0 0 0 0 0 0 0 0 0
0 0 0 0 0 0 0 0 0 0 0 0 0 0 0 0 0 0 0 0 0 0 0 0 0 0 0 0 0 0 0 0 0 0 0 0 0 0 0 0 0 0 0 0 0 0 0 0 0
0 0 0 0 0 0 0 0 0 0 0 0 0 0 0 0 0 0 0 0 0 0 0 0 0 0 0 0 0 0 0 0 0 0 0 0 0 0 0 0 0 0 0 0 0 0 0 0 0
0 0 0 0 0 0 0 0 0 0 0 0 0 0 0 0 0 0 0 0 0 0 0 0 0 0 0 0 0 0 0 0 0 0 0 0 0 0 0 0 0 0 0 0 0 0 0 0 0
0 0 0 0 0 0 0 0 0 0 0 0 0 0 0 0 0 0 0 0 0 0 0 0 0 0 0 0 0 0 0 0 0 0 0 0 0 0 0 0 0 0 0 0 0 0 0 0 0
0 0 0 0 0 0 0 0 0 0 0 0 0 0 0 0 0 0 0 0 0 0 0 0 0 0 0 0 0 0 0 0 0 0 0 0 0 0 0 0 0 0 0 0 0 0 0 0 0
0 0 0 0 0 0 0 0 0 0 0 0 0 0 0 0 0 0 0 0 0 0 0 0 0 0 0 0 0 0 0 0 0 0 0 0 0 0 0 0 0 0 0 0 0 0 0 0 0
0 0 0 0 0 0 0 0 0 0 0 0 0 0 0 0 0 0 0 0 0 0 0 0 0 0 0 0 0 0 0 0 0 0 0 0 0 0 0 0 0 0 0 0 0 0 0 0 0
0 0 0 0 0 0 0 0 0 0 0 0 0 0 0 0 0 0 0 0 0 0 0 0 0 0 0 0 0 0 0 0 0 0 0 0 0 0 0 0 0 0 0 0 0 0 0 0 0
0 0 0 0 0 0 0 0 0 0 0 0 0 0 0 0 0 0 0 0 0 0 0 0 0 0 0 0 0 0 0 0 0 0 0 0 0 0 0 0 0 0 0 0 0 0 0 0 0
0 0 0 0 0 0 0 0 0 0 0 0 0 0 0 0 0 0 0 0 0 0 0 0 0 0 0 0 0 0 0 0 0 0 0 0 0 0 0 0 0 0 0 0 0 0 0 0 0
0 0 0 0 0 0 0 0 0 0 0 0 0 0 0 0 0 0 0 0 0 0 0 0 0 0 0 0 0 0 0 0 0 0 0 0 0 0 0 0 0 0 0 0 0 0 0 0 0
0 0 0 0 0 0 0 0 0 0 0 0 0 0 0 0 0 0 0 0 0 0 0 0 0 0 0 0 0 0 0 0 0 0 0 0 0 0 0 0 0 0 0 0 0 0 0 0 0

GEFSSGP_con_cape1000_090.txt.gz
Probability
71 71 58 45 39 13 0 0 0 0 0 0 0 0 0 0 0 3 29 19 16 16 16 42 61 55 68 65 65 74 77 81 84 87 87 97 100 100 94 94 97 97 94 100 97 90 94 87 90
61 61 45 32 26 0 0 0 0 0 0 0 0 0 0 0 0 6 10 10 13 19 13 19 42 39 55 52 61 68 61 68 71 77 84 87 90 90 94 94 97 97 97 90 94 84 87 87 87
55 52 42 23 0 0 0 0 0 0 0 3 0 0 0 0 0 6 13 10 10 10 10 23 42 42 39 29 45 48 48 52 52 68 68 77 77 77 84 84 87 87 84 81 84 87 81 87 84
55 45 35 13 0 0 0 0 0 3 0 0 0 0 0 0 13 6 10 16 6 3 3 13 39 29 23 16 29 35 35 39 26 32 55 55 61 61 71 68 68 71 71 68 71 77 77 81 84
68 58 29 0 0 0 0 3 3 3 0 0 0 0 0 3 3 6 6 3 0 0 3 6 19 19 16 13 13 23 16 16 23 23 32 32 45 58 61 55 58 58 55 58 58 58 68 68 81
77 55 0 0 0 0 0 3 6 0 0 0 0 0 3 3 6 3 6 3 3 0 3 3 16 19 16 13 16 16 10 6 19 16 19 26 42 39 45 45 48 48 45 52 58 52 58 61 58
77 26 0 0 0 0 0 10 6 0 0 3 0 0 0 0 3 6 6 3 3 0 3 3 3 6 6 10 6 6 3 0 3 6 10 13 10 13 26 29 39 48 48 42 48 48 58 52 45
81 29 0 0 0 0 3 6 6 0 3 0 0 0 0 3 6 6 6 3 3 3 3 3 0 0 0 3 0 0 0 0 3 6 3 3 6 3 10 6 19 26 39 39 35 42 45 45 52
71 10 0 0 0 0 3 0 0 0 0 0 0 0 0 0 3 3 3 3 3 3 0 0 0 0 0 0 0 0 3 3 3 3 6 6 6 10 3 3 19 13 19 16 26 23 42 35 39
68 3 0 0 0 0 3 0 0 0 0 0 0 0 0 0 0 3 3 3 3 0 0 0 0 0 0 0 0 0 0 0 0 0 0 3 6 6 0 3 6 10 6 16 13 10 23 23 32
32 3 6 3 3 0 3 3 0 0 0 0 0 3 3 3 0 0 0 0 0 0 0 0 0 0 0 0 0 0 0 0 0 0 0 6 6 6 6 6 3 3 6 10 16 16 13 23 13
32 16 6 6 6 6 6 3 0 0 0 0 0 0 3 0 0 0 0 0 0 0 0 0 0 0 0 0 0 0 0 0 0 0 3 3 6 6 6 6 3 3 6 16 16 23 10 16 10
23 19 16 6 10 13 13 10 10 0 0 0 0 0 3 0 0 0 0 0 0 0 0 0 0 0 0 0 0 0 0 0 0 0 3 3 6 3 0 6 10 0 6 10 19 13 10 13 13
23 13 16 6 10 10 13 13 3 0 0 0 0 3 0 0 0 0 0 0 0 0 0 0 0 0 0 0 0 0 0 0 0 0 0 3 6 6 3 3 3 0 3 3 6 6 10 19 16
26 13 3 6 10 10 10 0 0 0 0 0 0 3 0 0 0 0 0 0 0 0 0 0 0 0 0 0 0 0 0 0 0 0 3 3 3 6 0 0 0 0 0 3 0 0 6 10 6
26 3 0 0 13 10 0 0 0 0 0 0 0 0 3 0 0 0 0 0 0 0 0 0 0 0 0 0 0 0 0 0 0 0 0 0 0 3 0 0 0 0 0 0 3 3 3 3 10
0 0 0 0 3 0 0 0 0 0 0 0 0 0 0 0 0 0 0 0 0 0 0 0 0 0 0 0 0 0 0 0 0 0 0 0 0 0 0 0 0 3 0 0 3 10 3 0 0
0 0 0 0 0 0 0 0 0 0 0 0 0 0 0 0 0 0 0 0 0 0 0 0 0 0 0 0 0 0 0 0 0 0 0 0 0 0 0 0 0 0 3 6 0 6 6 3 3
0 0 0 0 0 0 0 0 0 0 0 0 0 0 0 0 0 0 0 0 0 0 0 0 0 0 0 0 0 0 0 0 0 0 0 0 0 0 0 3 0 3 6 6 0 3 3 3 3
0 0 0 0 0 0 0 0 0 0 0 0 0 0 0 0 0 0 0 0 0 0 0 0 0 0 0 0 0 0 0 0 0 0 0 0 0 0 0 0 0 0 6 3 3 3 6 3 3
0 0 0 0 0 0 0 0 0 0 0 0 0 0 0 0 0 0 0 0 0 0 0 0 0 0 0 0 0 0 0 0 0 0 0 0 0 0 0 0 0 0 0 3 0 3 3 6 0
0 0 0 0 0 0 0 0 0 0 0 0 0 0 0 0 0 0 0 0 0 0 0 0 0 0 0 0 0 0 0 0 0 0 0 0 0 0 0 0 0 0 0 0 0 0 0 3 0
0 0 0 0 0 0 0 0 0 0 0 0 0 0 0 0 0 0 0 0 0 0 0 0 0 0 0 0 0 0 0 0 0 0 0 0 0 0 0 0 0 0 0 0 0 0 0 0 0
0 0 0 0 0 0 0 0 0 0 0 0 0 0 0 0 0 0 0 0 0 0 0 0 0 0 0 0 0 0 0 0 0 0 0 0 0 0 0 0 0 0 0 0 0 0 0 0 0
0 0 0 0 0 0 0 0 0 0 0 0 0 0 0 0 0 0 0 0 0 0 0 0 0 0 0 0 0 0 0 0 0 0 0 0 0 0 0 0 0 0 3 0 0 0 0 0 0
0 0 0 0 0 0 0 0 0 0 0 0 0 0 0 0 0 0 0 0 0 0 0 0 0 0 0 0 0 0 0 0 0 0 0 0 0 0 0 0 0 0 3 0 0 0 0 0 0
0 0 0 0 0 0 0 0 0 0 0 0 0 0 0 0 0 0 0 0 0 0 0 0 0 0 0 0 0 0 0 0 0 0 0 0 0 0 0 0 0 0 0 0 0 0 0 0 0
0 0 0 0 0 0 0 0 0 0 0 0 0 0 0 0 0 0 0 0 0 0 0 0 0 0 0 0 0 0 0 0 0 0 0 0 0 0 0 0 0 0 0 0 0 0 0 0 0
0 0 0 0 0 0 0 0 0 0 0 0 0 0 0 0 0 0 0 0 0 0 0 0 0 0 0 0 0 0 0 0 0 0 0 0 0 0 0 0 0 0 0 0 3 3 0 0 0
0 0 0 0 0 0 0 0 0 0 0 0 0 0 0 0 0 0 0 0 0 0 0 0 0 0 0 0 0 0 0 0 0 0 0 0 0 0 0 0 0 0 0 0 0 0 0 0 0

GEFSSGP_con_cape1000_096.txt.gz
Probability
81 71 71 65 48 45 3 0 0 0 0 0 0 0 3 10 26 23 26 19 26 32 29 55 71 48 45 55 42 39 39 39 48 52 58 61 58 74 81 81 87 84 90 90 90 84 90 87 87
74 68 65 55 45 6 0 0 0 0 0 0 0 0 3 3 16 13 23 32 23 23 19 29 58 45 35 29 39 42 35 39 42 45 52 55 61 61 74 71 74 81 84 84 84 81 77 74 81
71 71 65 65 26 0 0 0 0 0 0 0 0 0 10 10 10 10 16 16 6 10 13 35 55 42 26 19 23 29 29 26 32 35 35 35 42 52 55 58 55 68 68 65 65 71 71 65 65
77 68 71 55 10 0 0 0 0 0 0 0 0 6 3 6 10 10 6 3 3 13 13 23 39 45 35 26 19 19 19 19 26 29 29 29 26 32 45 45 48 45 58 58 61 65 58 48 58
84 81 58 16 0 0 0 0 0 0 0 0 0 6 6 0 10 10 10 0 3 3 6 10 23 19 19 19 6 10 13 13 16 13 13 16 26 26 19 32 42 48 52 48 48 48 42 48 42
81 77 48 3 0 0 0 0 0 0 0 0 3 13 6 6 10 6 3 3 6 3 3 6 23 19 10 3 3 3 3 3 6 3 3 16 23 19 26 29 32 26 35 45 42 35 42 45 42
81 74 13 0 0 0 0 0 3 0 0 0 0 3 6 6 13 6 3 0 3 3 3 3 0 10 16 13 6 6 6 3 0 3 6 10 16 16 23 26 23 23 29 26 32 32 35 32 42
81 74 6 0 3 0 0 0 0 0 0 0 0 0 10 6 3 6 6 3 3 0 3 3 0 3 3 6 13 6 3 3 3 3 3 3 13 13 16 23 19 19 16 32 35 29 35 39 26
74 61 6 0 0 0 0 0 0 0 0 0 0 0 13 0 0 3 10 6 3 0 0 3 3 3 0 0 3 3 3 3 3 3 6 16 6 3 13 16 19 23 19 16 26 29 23 32 35
65 42 0 0 0 0 0 0 0 0 0 0 0 0 6 3 3 3 3 3 3 3 0 0 0 0 0 0 0 0 0 0 0 0 0 3 3 3 3 10 23 16 19 16 26 35 29 19 6
42 26 23 3 0 3 0 0 0 0 0 0 0 0 0 0 3 3 3 3 3 0 0 0 0 0 0 0 0 0 0 0 0 0 0 0 0 0 3 3 3 6 10 3 10 13 6 3 3
42 23 6 6 3 0 0 3 3 0 0 0 0 0 0 0 0 0 0 3 0 0 0 0 0 0 0 0 0 0 0 0 0 0 0 0 0 0 0 3 3 3 0 3 0 0 3 3 6
32 32 6 3 3 3 0 0 3 6 0 0 0 0 3 3 0 0 0 0 0 0 0 0 0 0 0 0 0 0 0 0 0 0 0 0 0 0 0 6 3 3 0 0 0 0 0 6 3
32 19 16 6 3 0 0 6 3 3 0 0 0 0 0 0 0 0 0 0 0 0 0 0 0 0 0 0 0 0 0 0 0 0 0 0 0 0 3 6 3 3 3 3 0 0 0 3 3
13 16 3 6 0 0 0 3 3 3 0 0 0 0 0 0 0 0 0 0 0 0 0 0 0 0 0 0 0 0 0 0 0 0 0 0 0 0 0 0 0 0 0 0 6 0 3 3 3
6 0 3 0 3 0 0 0 0 3 0 0 0 0 0 0 0 0 0 0 0 0 0 0 0 0 0 0 0 0 0 0 0 0 0 0 0 0 0 0 0 0 0 0 3 3 6 3 0
3 0 0 0 0 0 0 0 0 3 0 0 3 3 0 0 0 0 0 0 0 0 0 0 0 0 0 0 0 0 0 0 0 0 0 0 0 0 0 0 0 0 0 0 0 6 3 3 0
0 0 0 0 0 0 0 0 0 0 0 0 0 0 0 0 0 0 0 0 0 0 0 0 0 0 0 0 0 0 0 0 0 0 0 0 0 0 0 0 0 0 0 0 6 6 3 3 0
0 0 0 0 0 0 0 0 0 0 0 0 0 0 0 0 0 0 0 0 0 0 0 0 0 0 0 0 0 0 0 0 0 0 0 0 0 0 0 0 0 0 0 0 3 3 0 0 0
0 0 0 0 0 0 0 0 0 0 0 0 0 0 0 0 0 0 0 0 0 0 0 0 0 0 0 0 0 0 0 0 0 0 0 0 0 0 0 0 0 0 0 3 3 3 3 3 3
0 0 0 0 0 0 0 0 0 0 0 0 0 0 0 0 0 0 0 0 0 0 0 0 0 0 0 0 0 0 0 0 0 0 0 0 0 0 0 0 0 0 0 3 3 0 0 0 0
0 0 0 0 0 0 0 0 0 0 0 0 0 0 0 0 0 0 0 0 0 0 0 0 0 0 0 0 0 0 0 0 0 0 0 0 0 0 0 0 0 0 0 0 0 0 6 0 0
0 0 0 0 0 0 0 0 0 0 0 0 0 0 0 0 0 0 0 0 0 0 0 0 0 0 0 0 0 0 0 0 0 0 0 0 0 0 0 0 0 0 0 0 0 0 3 3 0
0 0 0 0 0 0 0 0 0 0 0 0 0 0 0 0 0 0 0 3 0 0 0 0 0 0 0 0 0 0 0 0 0 0 0 0 0 0 0 0 0 0 0 0 0 0 0 0 0
0 0 0 0 0 0 0 0 0 0 0 0 0 0 0 0 0 0 6 3 0 0 0 0 0 0 0 0 0 0 0 0 0 0 0 0 0 0 0 0 0 0 0 0 0 0 0 0 0
0 0 0 0 0 0 0 0 0 0 0 0 0 0 0 0 0 0 6 3 0 0 0 0 0 0 0 0 0 0 0 0 0 0 0 0 0 0 0 0 0 0 0 0 0 0 0 0 0
0 0 0 0 0 0 0 0 0 0 0 0 0 0 0 0 0 0 3 3 0 0 0 0 0 0 0 0 0 0 0 0 0 0 0 0 0 0 0 0 0 0 0 0 0 0 0 0 0
0 0 0 0 0 0 0 0 0 0 0 0 0 0 0 0 0 0 0 3 0 0 0 0 0 0 0 0 0 0 0 0 0 0 0 0 0 0 0 0 0 0 0 0 0 0 0 0 0
0 0 0 0 0 0 0 0 0 0 0 0 0 0 0 0 0 0 0 0 0 0 0 0 0 0 0 0 0 0 0 0 0 0 0 0 0 0 0 0 0 0 0 0 0 0 0 0 0
0 0 0 0 0 0 0 0 0 0 0 0 0 0 0 0 0 0 0 0 0 0 0 0 0 0 0 0 0 0 0 0 0 0 0 0 0 0 0 0 0 0 0 0 0 0 0 0 0

GEFSSGP_con_cape1000_102.txt.gz
Probability
81 58 39 16 0 0 0 0 0 0 0 0 0 0 0 0 0 0 0 6 13 39 65 84 84 77 71 65 55 55 61 61 61 68 68 71 68 68 77 84 81 77 81 84 84 90 77 77 81
55 52 26 6 0 0 0 0 0 0 0 0 0 0 0 0 3 3 6 16 19 26 42 48 74 74 65 58 48 48 45 48 52 58 61 65 61 65 68 71 71 81 81 74 77 77 68 77 81
52 55 26 6 0 0 0 0 0 0 0 0 0 0 0 6 3 3 3 3 6 13 26 65 65 58 52 45 45 42 39 39 45 39 35 35 42 48 48 55 58 61 61 74 71 71 68 65 71
55 26 6 0 0 0 0 0 0 0 0 3 0 0 0 3 6 0 3 3 0 13 19 45 55 48 42 39 39 32 29 23 26 29 29 26 23 26 29 42 52 52 58 52 65 65 61 61 61
23 6 0 0 0 0 0 0 0 0 0 0 0 0 0 3 3 3 0 0 0 0 6 39 45 42 39 32 29 26 19 16 19 16 19 23 19 19 19 29 35 45 52 55 61 65 52 48 61
10 3 0 0 0 0 0 0 0 0 0 0 0 0 0 0 0 0 0 0 0 0 3 19 42 39 35 29 16 13 10 13 10 10 10 10 10 10 23 19 29 35 55 52 42 45 39 39 45
13 3 0 0 0 0 0 0 0 0 0 3 0 0 0 0 0 0 3 0 0 3 3 3 16 23 29 19 16 13 13 10 10 10 6 10 13 13 13 19 23 26 32 45 35 35 35 26 35
13 6 0 0 0 0 0 0 0 0 0 0 0 0 0 0 0 0 3 3 3 3 3 3 3 6 6 6 10 16 16 16 16 13 10 13 16 10 10 16 19 16 19 26 32 32 32 42 35
16 0 0 0 0 0 0 0 0 0 0 0 0 0 0 0 0 0 0 0 0 3 3 3 0 0 0 0 6 6 10 10 10 3 6 6 0 0 0 3 16 19 10 10 16 23 29 35 32
10 0 0 0 0 0 0 0 0 0 0 0 0 0 0 0 0 0 0 0 0 0 0 0 0 0 0 0 0 0 0 0 0 0 0 0 0 0 0 0 10 16 13 10 13 10 23 16 6
6 0 0 0 0 0 0 0 0 0 0 0 0 0 0 0 0 0 0 0 0 0 0 0 0 0 0 0 0 0 0 0 0 0 0 0 0 0 0 0 0 0 0 3 0 0 0 0 0
13 10 6 0 0 0 0 0 0 0 0 0 0 0 0 0 0 0 0 0 0 0 0 0 0 0 0 0 0 0 0 0 0 0 0 0 0 0 0 0 0 0 0 0 0 0 0 0 0
10 10 13 0 0 0 0 0 0 0 0 0 0 0 0 0 3 3 3 0 0 0 0 0 0 0 0 0 0 0 0 0 0 0 0 0 0 0 0 0 0 0 0 0 0 0 0 0 0
6 6 0 0 0 0 0 0 0 0 3 3 0 0 0 0 0 0 3 3 0 0 0 0 0 0 0 0 0 0 0 0 0 0 0 0 0 0 0 0 0 0 0 0 0 0 0 0 0
3 0 0 0 0 0 0 0 0 0 0 3 0 0 0 0 0 0 0 0 0 0 0 0 0 0 0 0 0 0 0 0 0 0 0 0 0 0 0 0 0 0 0 0 0 0 0 0 0
0 0 0 0 0 0 0 0 0 0 0 3 0 0 0 0 0 0 0 0 0 0 0 0 0 0 0 0 0 0 0 0 0 0 0 0 0 0 0 0 0 0 0 0 0 0 0 3 0
0 0 0 0 0 0 0 0 0 0 0 3 0 0 0 0 0 0 0 0 0 0 0 0 0 0 0 0 0 0 0 0 0 0 0 0 0 0 0 0 0 0 0 0 0 0 0 0 0
0 0 0 0 0 0 0 0 0 0 0 3 0 0 0 0 0 0 0 0 0 0 0 0 0 0 0 0 0 0 0 0 0 0 0 0 0 0 0 0 0 0 0 0 0 0 0 0 0
0 0 0 0 0 0 0 0 0 0 0 3 0 0 0 0 0 0 0 0 0 0 0 0 0 0 0 0 0 0 0 0 0 0 0 0 0 0 0 0 0 0 0 0 0 0 0 0 0
0 0 0 0 0 0 0 0 0 0 0 0 0 0 0 0 0 0 0 0 0 0 0 0 0 0 0 0 0 0 0 0 0 0 0 0 0 0 0 0 0 0 0 0 0 0 0 0 0
0 0 0 0 0 0 0 0 0 0 0 0 0 0 0 0 0 0 0 0 0 0 0 0 0 0 0 0 0 0 0 0 0 0 0 0 0 0 0 0 0 0 0 0 0 0 0 0 0
0 0 0 0 0 0 0 0 0 0 0 0 0 0 0 0 0 0 0 0 0 0 0 0 0 0 0 0 0 0 0 0 0 0 0 0 0 0 0 0 0 0 0 0 0 0 0 0 0
0 0 0 0 0 0 0 0 0 0 0 0 0 0 0 0 0 0 0 0 0 0 0 0 0 0 0 0 0 0 0 0 0 0 0 0 0 0 0 0 0 0 0 0 0 0 0 0 0
0 0 0 0 0 0 0 0 0 0 0 0 0 0 0 0 0 0 0 0 0 0 0 0 0 0 0 0 0 0 0 0 0 0 0 0 0 0 0 0 0 0 0 0 0 0 0 0 0
0 0 0 0 0 0 0 0 0 0 0 0 0 0 0 0 0 0 0 0 0 0 0 0 0 0 0 0 0 0 0 0 0 0 0 0 0 0 0 0 0 0 0 0 0 0 0 0 0
0 0 0 0 0 0 0 0 0 0 0 0 0 0 0 0 0 0 0 0 0 0 0 0 0 0 0 0 0 0 0 0 0 0 0 0 0 0 0 0 0 0 0 0 0 0 0 0 0
0 0 0 0 0 0 0 0 0 0 0 0 0 0 0 0 0 0 0 0 0 0 0 0 0 0 0 0 0 0 0 0 0 0 0 0 0 0 0 0 0 0 0 0 0 0 0 0 0
0 0 0 0 0 0 0 0 0 0 0 0 0 0 0 0 0 0 0 0 0 0 0 0 0 0 0 0 0 0 0 0 0 0 0 0 0 0 0 0 0 0 0 0 0 0 0 0 0
0 0 0 0 0 0 0 0 0 0 0 0 0 0 0 0 0 0 0 0 0 0 0 0 0 0 0 0 0 0 0 0 0 0 0 0 0 0 0 0 0 0 0 0 0 0 0 0 0
0 0 0 0 0 0 0 0 0 0 0 0 0 0 0 0 0 0 0 0 0 0 0 0 0 0 0 0 0 0 0 0 0 0 0 0 0 0 0 0 0 0 0 0 0 0 0 0 0